Humidor Climate Dashboard

Latest Readings
18.6℃ / 78.4%
(June 19, 2019 at 12:27AM)
Temp high/low (last 24HR)
18.6℃
17.8℃
Hum high/low (last 24HR)
79.2%
78.1%
Average (Last 24HR)
18.26℃
78.83%
Last 24 HRs
Battery Status:
Used Remaining
Last 30 Days AVERAGE
DataTables Example
index Date / Time temperature humidity battery comment
index Date / Time temperature humidity battery comment
1 May 26, 2019 at 09:06PM 25.7 62 power bank start
2 May 26, 2019 at 09:16PM 24.9 68.80001
3 May 26, 2019 at 09:26PM 25.7 66.8
4 May 26, 2019 at 09:37PM 25.9 67.2
5 May 26, 2019 at 09:47PM 26 68.2
6 May 26, 2019 at 09:57PM 25.8 64
7 May 26, 2019 at 10:08PM 24.6 57.3
8 May 26, 2019 at 10:18PM 24.8 61.3
9 May 26, 2019 at 10:28PM 25.3 60.2
10 May 26, 2019 at 10:39PM 25.3 58.7
11 May 26, 2019 at 10:49PM 25.1 59.2
12 May 26, 2019 at 10:59PM 24.5 61.3
13 May 26, 2019 at 11:10PM 23.5 64
14 May 26, 2019 at 11:20PM 23.2 65
15 May 26, 2019 at 11:30PM 23.2 65.5
16 May 26, 2019 at 11:41PM 25.3 59
17 May 26, 2019 at 11:51PM 25.4 58.1
18 May 27, 2019 at 12:01AM 25.3 57.8
19 May 27, 2019 at 12:11AM 25.3 57.7
20 May 27, 2019 at 12:22AM 25.2 57.3
21 May 27, 2019 at 12:32AM 25.1 57.3
22 May 27, 2019 at 12:42AM 25.1 57.1
23 May 27, 2019 at 12:53AM 25.2 58.8
24 May 27, 2019 at 01:03AM 25.5 62.1
25 May 27, 2019 at 01:13AM 25.7 64.3
26 May 27, 2019 at 01:24AM 25.8 65.4
27 May 27, 2019 at 01:34AM 25.9 64.8
28 May 27, 2019 at 01:44AM 26 65.5
29 May 27, 2019 at 01:55AM 26 65.9
30 May 27, 2019 at 02:05AM 26 66.6
31 May 27, 2019 at 02:15AM 26.1 67.3
32 May 27, 2019 at 02:26AM 26.1 68
33 May 27, 2019 at 02:36AM 26.1 68.7
34 May 27, 2019 at 02:46AM 26.1 69.4
35 May 27, 2019 at 02:57AM 26.1 69.9
36 May 27, 2019 at 03:07AM 26.2 70.4
37 May 27, 2019 at 03:17AM 26.2 71.1
38 May 27, 2019 at 03:28AM 26.2 71.8
39 May 27, 2019 at 03:38AM 26.2 72.5
40 May 27, 2019 at 03:48AM 26.2 73.1
41 May 27, 2019 at 03:59AM 26.3 73.5
42 May 27, 2019 at 04:09AM 26.2 73.9
43 May 27, 2019 at 04:19AM 26.3 74.2
44 May 27, 2019 at 04:30AM 26.3 74.3
45 May 27, 2019 at 04:40AM 26.3 74.6
46 May 27, 2019 at 04:50AM 26.3 74.8
47 May 27, 2019 at 05:01AM 26.3 75
48 May 27, 2019 at 05:11AM 26.3 75
49 May 27, 2019 at 05:21AM 26.4 75.1
50 May 27, 2019 at 05:32AM 26.4 74.3
51 May 27, 2019 at 05:42AM 26.4 74.1
52 May 27, 2019 at 05:52AM 26.4 74.2
53 May 27, 2019 at 06:03AM 26.4 73
54 May 27, 2019 at 06:13AM 26.4 73.6
55 May 27, 2019 at 06:23AM 26.4 74.6
56 May 27, 2019 at 06:34AM 26.4 74.8
57 May 27, 2019 at 06:44AM 26.4 75.4
58 May 27, 2019 at 06:54AM 26.5 75.5
59 May 27, 2019 at 07:05AM 26.5 75.4
60 May 27, 2019 at 07:15AM 26.5 75.5
61 May 27, 2019 at 07:25AM 26.5 74.7
62 May 27, 2019 at 07:36AM 26.6 74.5
63 May 27, 2019 at 07:46AM 26.8 73.4
64 May 27, 2019 at 07:56AM 26.8 73.5
65 May 27, 2019 at 08:07AM 27 73.4
66 May 27, 2019 at 08:17AM 27 72.6
67 May 27, 2019 at 08:27AM 27.1 73.1
68 May 27, 2019 at 08:38AM 27 72.7
69 May 27, 2019 at 08:48AM 27 73
70 May 27, 2019 at 08:58AM 27 73.4
71 May 27, 2019 at 09:08AM 27.1 72
72 May 27, 2019 at 09:19AM 27 72.5
73 May 27, 2019 at 09:29AM 27 72.5
74 May 27, 2019 at 09:39AM 26.9 72.5
75 May 27, 2019 at 09:50AM 26.8 73.1
76 May 27, 2019 at 10:00AM 26.8 73.7
77 May 27, 2019 at 10:10AM 26.9 72.8
78 May 27, 2019 at 10:21AM 26.9 72.8
79 May 27, 2019 at 10:31AM 26.9 72.7
80 May 27, 2019 at 10:41AM 27 73.4
81 May 27, 2019 at 10:52AM 27 73.2
82 May 27, 2019 at 11:02AM 27 73.4
83 May 27, 2019 at 11:12AM 27 73.4
84 May 27, 2019 at 11:23AM 26.9 73.3
85 May 27, 2019 at 11:33AM 26.9 73.6
86 May 27, 2019 at 11:43AM 27 73.4
87 May 27, 2019 at 11:54AM 26.9 72.8
88 May 27, 2019 at 12:04PM 26.9 73
89 May 27, 2019 at 12:14PM 27.1 73.4
90 May 27, 2019 at 12:25PM 27.1 73.1
91 May 27, 2019 at 12:35PM 27.1 73
92 May 27, 2019 at 12:45PM 27.1 72.6
93 May 27, 2019 at 12:56PM 27.1 72.7
94 May 27, 2019 at 01:06PM 27.1 72.6
95 May 27, 2019 at 01:16PM 27.2 72.5
96 May 27, 2019 at 01:27PM 27.2 72.3
97 May 27, 2019 at 01:37PM 27.2 72
98 May 27, 2019 at 01:47PM 27.2 72.2
99 May 27, 2019 at 01:58PM 27.2 72.4
100 May 27, 2019 at 02:08PM 27.1 72.2
101 May 27, 2019 at 02:18PM 27 73.6
102 May 27, 2019 at 02:29PM 26.9 73.2
103 May 27, 2019 at 02:39PM 26.9 73
104 May 27, 2019 at 02:49PM 26.9 73
105 May 27, 2019 at 03:00PM 27 71.30001
106 May 27, 2019 at 03:10PM 27 70.9
107 May 27, 2019 at 03:20PM 27.1 70.5
108 May 27, 2019 at 03:31PM 27.1 70.2
109 May 27, 2019 at 03:41PM 27.2 69.9
110 May 27, 2019 at 03:51PM 27.2 69.7
111 May 27, 2019 at 04:01PM 27.2 69.9
112 May 27, 2019 at 04:12PM 27.2 70.1
113 May 27, 2019 at 04:22PM 27.2 69.6
114 May 27, 2019 at 04:32PM 27.2 69.9
115 May 27, 2019 at 04:43PM 27.2 69.9
116 May 27, 2019 at 04:53PM 27.2 70.1
117 May 27, 2019 at 05:03PM 27.2 69.4
118 May 27, 2019 at 05:14PM 27.2 69.5
119 May 27, 2019 at 05:24PM 27.2 69.7
120 May 27, 2019 at 05:34PM 27.2 69
121 May 27, 2019 at 05:45PM 27.2 68.7
122 May 27, 2019 at 06:05PM 27.1 68.4
123 May 27, 2019 at 06:16PM 27 67.6
124 May 27, 2019 at 06:26PM 26.9 66.6
125 May 27, 2019 at 06:36PM 26.5 56.1
126 May 27, 2019 at 06:47PM 26 53.2
127 May 27, 2019 at 06:57PM 25.8 53.5
128 May 27, 2019 at 07:07PM 25.9 55.6
129 May 27, 2019 at 07:18PM 25.8 56.6
130 May 27, 2019 at 07:28PM 25.7 57
131 May 27, 2019 at 07:38PM 24.7 51.9
132 May 27, 2019 at 07:49PM 23.1 49.1
133 May 27, 2019 at 07:59PM 22.5 48.4
134 May 27, 2019 at 08:09PM 22.1 47.8
135 May 27, 2019 at 08:20PM 21.7 47.9
136 May 27, 2019 at 08:30PM 21.7 51.7
137 May 27, 2019 at 08:40PM 22.3 55.1
138 May 27, 2019 at 08:51PM 23 61
139 May 27, 2019 at 09:01PM 23.3 63.4
140 May 27, 2019 at 09:11PM 24.6 66
141 May 27, 2019 at 09:22PM 24.9 66.5
142 May 27, 2019 at 09:32PM 25 66.2
143 May 27, 2019 at 09:42PM 25.3 65.7
144 May 27, 2019 at 09:53PM 25.4 65.4
145 May 27, 2019 at 10:03PM 25.5 65.5
146 May 27, 2019 at 10:13PM 25.6 65.7
147 May 27, 2019 at 10:23PM 25.7 65.7
148 May 27, 2019 at 10:34PM 25.8 66.2
149 May 27, 2019 at 10:44PM 25.8 65.7
150 May 27, 2019 at 10:54PM 25.9 65.5
151 May 27, 2019 at 11:05PM 25.9 65.2
152 May 27, 2019 at 11:15PM 25.9 64.8
153 May 27, 2019 at 11:25PM 25.9 65
154 May 27, 2019 at 11:36PM 26 65.2
155 May 27, 2019 at 11:46PM 26 64.5
156 May 27, 2019 at 11:56PM 26 64.7
157 May 28, 2019 at 12:07AM 26 64.3
158 May 28, 2019 at 12:17AM 26 65.2
159 May 28, 2019 at 12:27AM 24.9 55
160 May 28, 2019 at 12:38AM 24.1 52.5
161 May 28, 2019 at 12:48AM 23.6 53.1
162 May 28, 2019 at 12:58AM 24.3 56.9
163 May 28, 2019 at 01:09AM 24.9 59.3
164 May 28, 2019 at 01:19AM 25.1 61.1
165 May 28, 2019 at 01:29AM 25.3 62.2
166 May 28, 2019 at 01:40AM 25.4 62.7
167 May 28, 2019 at 01:50AM 25.6 63.3
168 May 28, 2019 at 02:00AM 25.6 63.3
169 May 28, 2019 at 02:11AM 25.7 63.7
170 May 28, 2019 at 02:21AM 25.7 63.8
171 May 28, 2019 at 02:31AM 25.8 64.2
172 May 28, 2019 at 02:42AM 25.9 64.1
173 May 28, 2019 at 02:52AM 25.9 64
174 May 28, 2019 at 03:02AM 26 64.6
175 May 28, 2019 at 03:23AM 26 64.6
176 May 28, 2019 at 03:33AM 26 64.7
177 May 28, 2019 at 03:44AM 26.1 64.6
178 May 28, 2019 at 03:54AM 26.1 64.5
179 May 28, 2019 at 04:04AM 26 64.4
180 May 28, 2019 at 04:15AM 26.1 64.3
181 May 28, 2019 at 04:25AM 26.1 64.4
182 May 28, 2019 at 04:35AM 26.1 64.3
183 May 28, 2019 at 04:46AM 26.1 64.1
184 May 28, 2019 at 04:56AM 26.1 64.2
185 May 28, 2019 at 05:06AM 26.1 64.7
186 May 28, 2019 at 05:17AM 26.2 64.3
187 May 28, 2019 at 05:27AM 26.2 64.7
188 May 28, 2019 at 05:37AM 26.2 65.4
189 May 28, 2019 at 05:48AM 26.2 65.7
190 May 28, 2019 at 05:58AM 26.2 65.7
191 May 28, 2019 at 06:08AM 26.2 66.9
192 May 28, 2019 at 06:19AM 26.2 67.1
193 May 28, 2019 at 06:29AM 26.3 68.4
194 May 28, 2019 at 06:39AM 26.3 69.4
195 May 28, 2019 at 06:50AM 26.3 69.7
196 May 28, 2019 at 07:00AM 26.3 69.9
197 May 28, 2019 at 07:10AM 26.4 70.4
198 May 28, 2019 at 07:21AM 26.4 70.4
199 May 28, 2019 at 07:31AM 26.5 70.6
200 May 28, 2019 at 07:41AM 26.5 70.8
201 May 28, 2019 at 07:52AM 26.5 71.2
202 May 28, 2019 at 08:02AM 26.6 71.4
203 May 28, 2019 at 08:12AM 26.6 71.1
204 May 28, 2019 at 08:23AM 26.6 71.8
205 May 28, 2019 at 08:33AM 26.6 71.7
206 May 28, 2019 at 08:43AM 26.6 71.6
207 May 28, 2019 at 08:54AM 26.6 71.5
208 May 28, 2019 at 09:04AM 26.5 71.8
209 May 28, 2019 at 09:14AM 26.5 72
210 May 28, 2019 at 09:25AM 26.5 72
211 May 28, 2019 at 09:35AM 26.5 72.3
212 May 28, 2019 at 09:45AM 26.5 72.2
213 May 28, 2019 at 09:56AM 26.5 72.5
214 May 28, 2019 at 10:06AM 26.5 72.5
215 May 28, 2019 at 10:16AM 26.6 72.8
216 May 28, 2019 at 10:26AM 26.5 72.5
217 May 28, 2019 at 10:37AM 26.5 72.2
218 May 28, 2019 at 10:47AM 26.5 72
219 May 28, 2019 at 10:57AM 26.5 71.8
220 May 28, 2019 at 11:08AM 26.4 71.7
221 May 28, 2019 at 11:18AM 26.4 71.6
222 May 28, 2019 at 11:28AM 26.4 71.5
223 May 28, 2019 at 11:39AM 26.4 71.5
224 May 28, 2019 at 11:49AM 26.4 71.5
225 May 28, 2019 at 11:59AM 26.4 71.5
226 May 28, 2019 at 12:10PM 26.4 71.5
227 May 28, 2019 at 12:20PM 26.4 71.6
228 May 28, 2019 at 12:30PM 26.4 71.8
229 May 28, 2019 at 12:41PM 26.4 71.8
230 May 28, 2019 at 12:51PM 26.4 71.8
231 May 28, 2019 at 01:01PM 26.4 71.5
232 May 28, 2019 at 01:12PM 26.4 71.30001
233 May 28, 2019 at 01:22PM 26.4 71.4
234 May 28, 2019 at 01:32PM 26.4 71.30001
235 May 28, 2019 at 01:43PM 26.5 71.2
236 May 28, 2019 at 01:53PM 26.5 70.9
237 May 28, 2019 at 02:03PM 26.5 70.6
238 May 28, 2019 at 02:14PM 26.5 70.5
239 May 28, 2019 at 02:24PM 26.5 70.6
240 May 28, 2019 at 02:34PM 26.5 70.4
241 May 28, 2019 at 02:45PM 26.5 70.6
242 May 28, 2019 at 02:55PM 26.5 70.6
243 May 28, 2019 at 03:05PM 26.5 70.5
244 May 28, 2019 at 03:16PM 26 58.9
245 May 28, 2019 at 03:26PM 24.8 50
246 May 28, 2019 at 03:36PM 24 47
247 May 28, 2019 at 03:47PM 23.3 46.2
248 May 28, 2019 at 03:57PM 22.9 47.4
249 May 28, 2019 at 04:07PM 22.5 46
250 May 28, 2019 at 04:18PM 22.3 46.6
251 May 28, 2019 at 04:28PM 22.1 45.9
252 May 28, 2019 at 04:38PM 21.8 45.5
253 May 28, 2019 at 04:49PM 21.7 46.3
254 May 28, 2019 at 04:59PM 21.6 46.7
255 May 28, 2019 at 05:09PM 21.6 46.9
256 May 28, 2019 at 05:20PM 21.4 47.1
257 May 28, 2019 at 05:30PM 21.3 47.5
258 May 28, 2019 at 05:40PM 21.6 55
259 May 28, 2019 at 05:51PM 21.4 48.2
260 May 28, 2019 at 06:01PM 21.2 47.6
261 May 28, 2019 at 06:11PM 21.1 47.2
262 May 28, 2019 at 06:21PM 21 46.9
263 May 28, 2019 at 06:32PM 20.9 46.9
264 May 28, 2019 at 06:42PM 20.7 47.1
265 May 28, 2019 at 06:52PM 20.6 48.2
266 May 28, 2019 at 07:03PM 20.6 48.4
267 May 28, 2019 at 07:13PM 20.6 48.4
268 May 28, 2019 at 07:23PM 20.5 48.5
269 May 28, 2019 at 07:34PM 20.4 48.5
270 May 28, 2019 at 07:44PM 20.3 49.2
271 May 28, 2019 at 07:54PM 20.3 49.2
272 May 28, 2019 at 08:05PM 20.2 49
273 May 28, 2019 at 08:15PM 20.2 49.1
274 May 28, 2019 at 08:25PM 20.1 49.3
275 May 28, 2019 at 08:36PM 20.1 50.1
276 May 28, 2019 at 08:46PM 20.3 55.5
277 May 28, 2019 at 08:56PM 21.9 68.5
278 May 28, 2019 at 09:07PM 22.6 67.8
279 May 28, 2019 at 09:17PM 23.1 68.4
280 May 28, 2019 at 09:27PM 23.5 66.1
281 May 28, 2019 at 09:38PM 23.8 64.8
282 May 28, 2019 at 09:48PM 24.1 64.4
283 May 28, 2019 at 09:58PM 24.3 64.3
284 May 28, 2019 at 10:09PM 24.4 63.4
285 May 28, 2019 at 10:19PM 24.4 64.1
286 May 28, 2019 at 10:29PM 25 54.5
287 May 28, 2019 at 10:40PM 23.5 57.3
288 May 28, 2019 at 10:50PM 23.2 57.8
289 May 28, 2019 at 11:00PM 23.2 58
290 May 28, 2019 at 11:11PM 23.2 58.2
291 May 28, 2019 at 11:21PM 23.3 59.2
292 May 28, 2019 at 11:31PM 23.3 59.2
293 May 28, 2019 at 11:42PM 23.3 58.9
294 May 28, 2019 at 11:52PM 23.3 58.8
295 May 29, 2019 at 12:02AM 23.3 58.7
296 May 29, 2019 at 12:13AM 23.3 58.7
297 May 29, 2019 at 12:23AM 23.3 58.7
298 May 29, 2019 at 12:33AM 23.3 58.6
299 May 29, 2019 at 12:44AM 23.3 58.5
300 May 29, 2019 at 12:54AM 23.4 58.5
301 May 29, 2019 at 01:04AM 23.4 58.6
302 May 29, 2019 at 01:15AM 23.5 58.6
303 May 29, 2019 at 01:25AM 23.6 58.6
304 May 29, 2019 at 01:35AM 23.7 58.6
305 May 29, 2019 at 01:46AM 23.8 58.5
306 May 29, 2019 at 01:56AM 23.9 58.5
307 May 29, 2019 at 02:06AM 24 58.3
308 May 29, 2019 at 02:17AM 24 58.3
309 May 29, 2019 at 02:27AM 24.2 58.4
310 May 29, 2019 at 02:37AM 24.2 58.4
311 May 29, 2019 at 02:48AM 24.3 58.5
312 May 29, 2019 at 02:58AM 24.4 58.5
313 May 29, 2019 at 03:08AM 24.5 58.6
314 May 29, 2019 at 03:18AM 24.5 58.6
315 May 29, 2019 at 03:29AM 24.5 58.6
316 May 29, 2019 at 03:39AM 24.6 58.6
317 May 29, 2019 at 03:49AM 24.7 58.7
318 May 29, 2019 at 04:00AM 24.7 58.8
319 May 29, 2019 at 04:10AM 24.8 58.7
320 May 29, 2019 at 04:20AM 24.8 58.7
321 May 29, 2019 at 04:31AM 24.8 58.8
322 May 29, 2019 at 04:41AM 24.9 58.8
323 May 29, 2019 at 04:51AM 24.9 58.9
324 May 29, 2019 at 05:02AM 24.9 58.9
325 May 29, 2019 at 05:12AM 25 58.9
326 May 29, 2019 at 05:22AM 25 58.9
327 May 29, 2019 at 05:33AM 25.1 58.9
328 May 29, 2019 at 05:43AM 25.1 59
329 May 29, 2019 at 05:53AM 25.1 59
330 May 29, 2019 at 06:04AM 25.1 59
331 May 29, 2019 at 06:14AM 25.2 59.1
332 May 29, 2019 at 06:24AM 25.2 59.1
333 May 29, 2019 at 06:35AM 25.2 59.1
334 May 29, 2019 at 06:45AM 25.3 59.1
335 May 29, 2019 at 06:55AM 25.3 59.1
336 May 29, 2019 at 07:06AM 25.3 59.1
337 May 29, 2019 at 07:16AM 25.4 59.1
338 May 29, 2019 at 07:26AM 25.3 59.1
339 May 29, 2019 at 07:37AM 25.4 59.1
340 May 29, 2019 at 07:47AM 25.5 59.2
341 May 29, 2019 at 07:57AM 25.4 57.2
342 May 29, 2019 at 08:08AM 25.1 54.5
343 May 29, 2019 at 08:18AM 24.8 53.6
344 May 29, 2019 at 08:28AM 24.4 50.9
345 May 29, 2019 at 08:39AM 24 50.6
346 May 29, 2019 at 08:49AM 23.6 50.8
347 May 29, 2019 at 08:59AM 23.2 51.2
348 May 29, 2019 at 09:09AM 22.9 52.5
349 May 29, 2019 at 09:20AM 22.7 53.9
350 May 29, 2019 at 09:30AM 22.7 55.5
351 May 29, 2019 at 09:40AM 22.6 56
352 May 29, 2019 at 09:51AM 22.5 56.5
353 May 29, 2019 at 10:01AM 22.5 56.6
354 May 29, 2019 at 10:11AM 22.5 57.2
355 May 29, 2019 at 10:22AM 22.5 57.1
356 May 29, 2019 at 10:32AM 22.4 56.9
357 May 29, 2019 at 10:42AM 22.4 57
358 May 29, 2019 at 10:53AM 22.4 57.1
359 May 29, 2019 at 11:03AM 22.3 57.1
360 May 29, 2019 at 11:13AM 22.3 57.1
361 May 29, 2019 at 11:24AM 22.3 57.1
362 May 29, 2019 at 11:34AM 22.2 57.1
363 May 29, 2019 at 11:44AM 22.2 57.1
364 May 29, 2019 at 11:55AM 22.2 57.2
365 May 29, 2019 at 12:05PM 22.1 57.2
366 May 29, 2019 at 12:15PM 22.1 57.2
367 May 29, 2019 at 12:26PM 22.1 57.2
368 May 29, 2019 at 12:36PM 22.1 57.1
369 May 29, 2019 at 12:46PM 22 57.1
370 May 29, 2019 at 12:57PM 22 57.1
371 May 29, 2019 at 01:07PM 22 57.1
372 May 29, 2019 at 01:17PM 22 57.1
373 May 29, 2019 at 01:28PM 21.9 57.1
374 May 29, 2019 at 01:38PM 21.9 57.2
375 May 29, 2019 at 01:48PM 21.8 57
376 May 29, 2019 at 01:59PM 21.8 57.1
377 May 29, 2019 at 02:09PM 21.8 57.1
378 May 29, 2019 at 02:19PM 21.8 57.3
379 May 29, 2019 at 02:30PM 21.7 57.4
380 May 29, 2019 at 02:40PM 21.7 57.3
381 May 29, 2019 at 02:50PM 21.7 57.2
382 May 29, 2019 at 03:01PM 21.7 57.3
383 May 29, 2019 at 03:11PM 21.7 57.2
384 May 29, 2019 at 03:21PM 21.7 57.2
385 May 29, 2019 at 03:31PM 21.6 57.1
386 May 29, 2019 at 03:42PM 21.6 57
387 May 29, 2019 at 03:52PM 21.6 57.1
388 May 29, 2019 at 04:02PM 21.6 57.1
389 May 29, 2019 at 04:13PM 21.6 57.1
390 May 29, 2019 at 04:23PM 21.5 57.2
391 May 29, 2019 at 04:33PM 21.5 57.2
392 May 29, 2019 at 04:44PM 21.5 57.1
393 May 29, 2019 at 04:54PM 21.4 57
394 May 29, 2019 at 05:04PM 21.4 57
395 May 29, 2019 at 05:15PM 21.4 57
396 May 29, 2019 at 05:25PM 21.4 57
397 May 29, 2019 at 05:35PM 21.3 57.2
398 May 29, 2019 at 05:46PM 21.3 57.3
399 May 29, 2019 at 05:56PM 21.3 57.1
400 May 29, 2019 at 06:06PM 21.3 56.9
401 May 29, 2019 at 06:17PM 21.3 56.8
402 May 29, 2019 at 06:27PM 21.2 56.7
403 May 29, 2019 at 06:37PM 21.2 56.6
404 May 29, 2019 at 06:48PM 21.2 56.6
405 May 29, 2019 at 06:58PM 21.2 56.7
406 May 29, 2019 at 07:08PM 21.1 56.7
407 May 29, 2019 at 07:19PM 21.1 56.7
408 May 29, 2019 at 07:29PM 21.1 56.7
409 May 29, 2019 at 07:39PM 21.1 56.7
410 May 29, 2019 at 07:50PM 21.1 56.9
411 May 29, 2019 at 08:00PM 20.9 61.5
412 May 29, 2019 at 08:10PM 20.6 59.8
413 May 29, 2019 at 08:21PM 20.5 61
414 May 29, 2019 at 08:31PM 20.4 59.7
415 May 29, 2019 at 08:41PM 20.2 59.3
416 May 29, 2019 at 08:51PM 20.3 62.4
417 May 29, 2019 at 09:02PM 20.7 62.4
418 May 29, 2019 at 09:12PM 21 65
419 May 29, 2019 at 09:22PM 21.3 65.6
420 May 29, 2019 at 09:33PM 21.6 66.4
421 May 29, 2019 at 09:43PM 21.9 66.9
422 May 29, 2019 at 09:53PM 22 67.1
423 May 29, 2019 at 10:04PM 22.2 67.3
424 May 29, 2019 at 10:14PM 22.4 67.8
425 May 29, 2019 at 10:24PM 22.6 68.3
426 May 29, 2019 at 10:35PM 22.7 68.80001 placed inside humidor
427 May 29, 2019 at 10:45PM 23.9 59.7
428 May 29, 2019 at 10:56PM 23.6 59.6
429 May 29, 2019 at 11:06PM 23.6 59.4
430 May 29, 2019 at 11:16PM 23.7 59.4
431 May 29, 2019 at 11:26PM 23.8 59.1
432 May 29, 2019 at 11:37PM 23.9 59.1
433 May 29, 2019 at 11:47PM 24 59
434 May 29, 2019 at 11:57PM 24.1 58.9
435 May 30, 2019 at 12:08AM 24.2 58.9
436 May 30, 2019 at 12:18AM 24.3 58.8
437 May 30, 2019 at 12:28AM 24.3 58.7
438 May 30, 2019 at 12:39AM 24.4 58.6
439 May 30, 2019 at 12:49AM 24.4 58.4
440 May 30, 2019 at 12:59AM 24.3 58.2
441 May 30, 2019 at 01:10AM 24.3 58.2
442 May 30, 2019 at 01:20AM 24.3 58.1
443 May 30, 2019 at 01:30AM 24.2 58.1
444 May 30, 2019 at 01:41AM 24.2 58.1
445 May 30, 2019 at 01:51AM 24.3 58.2
446 May 30, 2019 at 02:01AM 24.3 58.2
447 May 30, 2019 at 02:12AM 24.3 58.2
448 May 30, 2019 at 02:22AM 24.4 58.2
449 May 30, 2019 at 02:32AM 24.4 58.2
450 May 30, 2019 at 02:43AM 24.4 58.1
451 May 30, 2019 at 02:53AM 24.5 58.2
452 May 30, 2019 at 03:03AM 24.5 58.2
453 May 30, 2019 at 03:14AM 24.6 58.3
454 May 30, 2019 at 03:24AM 24.6 58.2
455 May 30, 2019 at 03:34AM 24.7 58.3
456 May 30, 2019 at 03:45AM 24.7 58.3
457 May 30, 2019 at 03:55AM 24.7 58.3
458 May 30, 2019 at 04:05AM 24.8 58.2
459 May 30, 2019 at 04:16AM 24.9 58.2
460 May 30, 2019 at 04:26AM 24.9 58.2
461 May 30, 2019 at 04:36AM 24.9 58.2
462 May 30, 2019 at 04:47AM 24.9 58.2
463 May 30, 2019 at 04:57AM 25 58.1
464 May 30, 2019 at 05:07AM 25 58.1
465 May 30, 2019 at 05:18AM 25.1 58.2
466 May 30, 2019 at 05:28AM 25.1 58.1
467 May 30, 2019 at 05:38AM 25.1 58.1
468 May 30, 2019 at 05:49AM 25.1 58.1
469 May 30, 2019 at 05:59AM 25.2 58.1
470 May 30, 2019 at 06:09AM 25.2 58
471 May 30, 2019 at 06:20AM 25.2 58
472 May 30, 2019 at 06:30AM 25.2 58
473 May 30, 2019 at 06:40AM 25.3 58
474 May 30, 2019 at 06:51AM 25.3 58
475 May 30, 2019 at 07:01AM 25.4 57.9
476 May 30, 2019 at 07:11AM 25.3 58
477 May 30, 2019 at 07:22AM 25.4 57.9
478 May 30, 2019 at 07:32AM 25.6 60
479 May 30, 2019 at 07:42AM 25.5 58.8
480 May 30, 2019 at 07:53AM 25.4 58.3
481 May 30, 2019 at 08:03AM 25.3 58.1
482 May 30, 2019 at 08:13AM 25.1 58
483 May 30, 2019 at 08:24AM 25 57.9
484 May 30, 2019 at 08:34AM 24.9 57.8
485 May 30, 2019 at 08:44AM 24.7 57.7
486 May 30, 2019 at 08:55AM 24.6 57.7
487 May 30, 2019 at 09:05AM 24.6 57.7
488 May 30, 2019 at 09:15AM 24.5 57.7
489 May 30, 2019 at 09:26AM 24.4 57.5
490 May 30, 2019 at 09:36AM 24.3 57.6
491 May 30, 2019 at 09:46AM 24.3 57.6
492 May 30, 2019 at 09:57AM 24.2 57.6
493 May 30, 2019 at 10:07AM 24.2 57.6
494 May 30, 2019 at 10:17AM 24.2 57.6
495 May 30, 2019 at 10:27AM 24.2 57.6
496 May 30, 2019 at 10:38AM 24.1 57.7
497 May 30, 2019 at 10:48AM 24.1 57.7
498 May 30, 2019 at 10:58AM 24.1 57.7
499 May 30, 2019 at 11:09AM 24 57.5
500 May 30, 2019 at 11:19AM 24.1 57.7
501 May 30, 2019 at 11:29AM 24 57.5
502 May 30, 2019 at 11:40AM 24 57.6
503 May 30, 2019 at 11:50AM 24 57.6
504 May 30, 2019 at 12:00PM 24 57.6
505 May 30, 2019 at 12:11PM 24 57.6
506 May 30, 2019 at 12:21PM 24 57.7
507 May 30, 2019 at 12:31PM 24 57.7
508 May 30, 2019 at 12:42PM 24 57.6
509 May 30, 2019 at 12:52PM 24 57.7
510 May 30, 2019 at 01:02PM 24 57.7
511 May 30, 2019 at 01:09PM 24 57.7
512 May 30, 2019 at 01:13PM 24 57.7
513 May 30, 2019 at 01:23PM 23.9 57.7
514 May 30, 2019 at 01:33PM 24 57.7 battery died
515 May 30, 2019 at 03:28PM 23.9 62.2 inserted new 18650 battery
516 May 30, 2019 at 03:39PM 24 60.2
517 May 30, 2019 at 03:49PM 23.8 65 added beads, closed lid
518 May 30, 2019 at 03:59PM 23.8 65.2
519 May 30, 2019 at 04:10PM 24.2 60.6
520 May 30, 2019 at 04:16PM 24.2 62.2
521 May 30, 2019 at 04:26PM 24.5 56.5
522 May 30, 2019 at 04:37PM 24.4 56.9
523 May 30, 2019 at 04:43PM 24.5 55.9 4095
524 May 30, 2019 at 04:49PM 24.5 55.7 4095
525 May 30, 2019 at 04:50PM 24.5 55.8 4095 killed led lights
526 May 30, 2019 at 05:19PM 25 57 4095 updated code
527 May 30, 2019 at 05:29PM 24.4 68.2 4095
528 May 30, 2019 at 05:39PM 24.3 68.5 4095
529 May 30, 2019 at 05:49PM 24.6 68.1 4095
530 May 30, 2019 at 05:59PM 24.1 67.8 4095
531 May 30, 2019 at 06:10PM 24 67.8 4095
532 May 30, 2019 at 06:20PM 23.9 68 4095
533 May 30, 2019 at 06:30PM 23.9 68.1 4095
534 May 30, 2019 at 06:40PM 23.6 68 4095
535 May 30, 2019 at 06:50PM 23.5 68.1 4095
536 May 30, 2019 at 07:00PM 24 60.2 4095
537 May 30, 2019 at 07:31PM 23.8 58.9 511 updated ADC attenuation
538 May 30, 2019 at 07:41PM 23.6 67.2 511
539 May 30, 2019 at 07:51PM 23.5 69 511
540 May 30, 2019 at 08:01PM 23.5 68.7 511
541 May 30, 2019 at 08:11PM 23.5 68.6 511
542 May 30, 2019 at 08:21PM 23.6 68.5 511
543 May 30, 2019 at 08:31PM 23.5 68.6 511
544 May 30, 2019 at 08:42PM 23.7 68.7 511
545 May 30, 2019 at 08:52PM 23.8 68.7 511
546 May 30, 2019 at 09:02PM 23.8 68.80001 511
547 May 30, 2019 at 09:12PM 23.9 68.80001 511
548 May 30, 2019 at 09:22PM 24 68.80001 511
549 May 30, 2019 at 09:33PM 24.4 69.1 511
550 May 30, 2019 at 09:43PM 24.7 69.4 511
551 May 30, 2019 at 09:53PM 24.2 69.1 511
552 May 30, 2019 at 10:03PM 24.1 69.5 511
553 May 30, 2019 at 10:13PM 23.1 69.1 511
554 May 30, 2019 at 10:23PM 24 69.6 511
555 May 30, 2019 at 10:34PM 24.1 69.9 511
556 May 30, 2019 at 10:44PM 23.6 69.6 511
557 May 30, 2019 at 10:54PM 24.7 70.2 511
558 May 30, 2019 at 11:04PM 24.1 69.9 511
559 May 30, 2019 at 11:14PM 24.1 69.9 511
560 May 30, 2019 at 11:24PM 23.9 69.7 511
561 May 30, 2019 at 11:35PM 24.2 69.8 511
562 May 30, 2019 at 11:45PM 24.1 69.8 511
563 May 30, 2019 at 11:55PM 24.3 69.9 511
564 May 31, 2019 at 12:05AM 24.5 70 511
565 May 31, 2019 at 12:15AM 24.4 70 511
566 May 31, 2019 at 12:25AM 24.3 70.4 511
567 May 31, 2019 at 12:36AM 24.4 70.6 511
568 May 31, 2019 at 12:46AM 24.2 70.7 511
569 May 31, 2019 at 12:56AM 24.4 70.8 511
570 May 31, 2019 at 01:06AM 23.2 70.3 511
571 May 31, 2019 at 01:16AM 24.2 70.9 511
572 May 31, 2019 at 01:26AM 24.1 71.1 511
573 May 31, 2019 at 01:37AM 23.7 70.9 511
574 May 31, 2019 at 01:47AM 23.4 70.8 511
575 May 31, 2019 at 01:57AM 24 71.2 511
576 May 31, 2019 at 02:07AM 23 70.8 511
577 May 31, 2019 at 02:17AM 24 71.30001 511
578 May 31, 2019 at 02:27AM 24 71.30001 511
579 May 31, 2019 at 02:37AM 24.2 71.4 511
580 May 31, 2019 at 02:48AM 23.4 70.8 511
581 May 31, 2019 at 02:58AM 24.1 71.30001 511
582 May 31, 2019 at 03:08AM 24.1 71.2 511
583 May 31, 2019 at 03:18AM 24.2 71.1 511
584 May 31, 2019 at 03:28AM 23.8 70.9 511
585 May 31, 2019 at 03:38AM 25.2 71.5 511
586 May 31, 2019 at 03:48AM 24.3 71.1 511
587 May 31, 2019 at 03:59AM 24.4 71.1 511
588 May 31, 2019 at 04:09AM 24.9 71.4 511
589 May 31, 2019 at 04:19AM 24.2 70.9 511
590 May 31, 2019 at 04:29AM 24.5 71.2 511
591 May 31, 2019 at 04:39AM 25.1 71.30001 511
592 May 31, 2019 at 04:49AM 24.6 71.2 511
593 May 31, 2019 at 04:59AM 24.6 71.2 511
594 May 31, 2019 at 05:10AM 24.4 71.1 511
595 May 31, 2019 at 05:20AM 23.7 70.8 511
596 May 31, 2019 at 05:30AM 24.7 71.30001 511
597 May 31, 2019 at 05:40AM 24.8 71.4 511
598 May 31, 2019 at 05:50AM 24.8 71.30001 511
599 May 31, 2019 at 06:00AM 24.8 71.4 511
600 May 31, 2019 at 06:10AM 24.8 71.4 511
601 May 31, 2019 at 06:21AM 24.4 71.2 511
602 May 31, 2019 at 06:31AM 24.9 71.5 511
603 May 31, 2019 at 06:41AM 24.4 71.2 511
604 May 31, 2019 at 06:51AM 24.9 71.5 511
605 May 31, 2019 at 07:01AM 25 71.6 511
606 May 31, 2019 at 07:11AM 25 71.6 511
607 May 31, 2019 at 07:22AM 25 71.6 511 added water (around 2 TBS)
608 May 31, 2019 at 07:32AM 24.8 71.8 511
609 May 31, 2019 at 07:42AM 25.4 72 511
610 May 31, 2019 at 07:52AM 25 72.2 511
611 May 31, 2019 at 08:02AM 25 72.3 511
612 May 31, 2019 at 08:12AM 24.9 72.6 511
613 May 31, 2019 at 08:22AM 24.8 73 511
614 May 31, 2019 at 08:33AM 24.8 73.3 511
615 May 31, 2019 at 08:43AM 24.7 73.4 511
616 May 31, 2019 at 08:53AM 25.5 73.6 511
617 May 31, 2019 at 09:03AM 24.5 73.6 511
618 May 31, 2019 at 09:13AM 24.3 73.5 511
619 May 31, 2019 at 09:23AM 24.4 73.5 511
620 May 31, 2019 at 09:33AM 24.1 73.4 511
621 May 31, 2019 at 09:44AM 24.3 73.6 511
622 May 31, 2019 at 09:54AM 24.3 73.7 511
623 May 31, 2019 at 10:04AM 24.2 73.7 511
624 May 31, 2019 at 10:14AM 24.2 73.7 511
625 May 31, 2019 at 10:24AM 24.2 73.7 511
626 May 31, 2019 at 10:34AM 24.2 73.80001 511
627 May 31, 2019 at 10:45AM 24.1 73.9 511
628 May 31, 2019 at 10:55AM 24.1 73.9 511
629 May 31, 2019 at 11:05AM 24.6 74.1 511
630 May 31, 2019 at 11:15AM 24.1 74 511
631 May 31, 2019 at 11:25AM 24.3 74.1 511
632 May 31, 2019 at 11:35AM 24.1 74.1 511
633 May 31, 2019 at 11:45AM 24.1 74.1 511
634 May 31, 2019 at 11:56AM 23.6 73.7 511
635 May 31, 2019 at 12:06PM 24 73.9 511
636 May 31, 2019 at 12:16PM 24.1 74.1 511
637 May 31, 2019 at 12:26PM 24 74 511
638 May 31, 2019 at 12:36PM 24.4 74.3 511
639 May 31, 2019 at 12:46PM 24.5 74.4 511
640 May 31, 2019 at 12:56PM 24 74.1 511
641 May 31, 2019 at 01:07PM 24 74.1 511
642 May 31, 2019 at 01:17PM 24 74.1 511
643 May 31, 2019 at 01:27PM 24.3 74.3 511
644 May 31, 2019 at 01:37PM 24 74.1 511
645 May 31, 2019 at 01:47PM 24 74.1 511
646 May 31, 2019 at 01:57PM 24 74.1 511
647 May 31, 2019 at 02:07PM 24 74.1 511
648 May 31, 2019 at 02:18PM 24 74.1 511
649 May 31, 2019 at 02:28PM 24 74.1 511
650 May 31, 2019 at 02:38PM 24 74.1 511
651 May 31, 2019 at 02:48PM 24 74.1 511
652 May 31, 2019 at 02:58PM 24 74.1 511
653 May 31, 2019 at 03:08PM 24.1 74.3 511
654 May 31, 2019 at 03:18PM 24 74.1 511
655 May 31, 2019 at 03:29PM 24 74.1 511
656 May 31, 2019 at 03:39PM 24.1 74.3 511
657 May 31, 2019 at 03:49PM 24.4 74.3 511
658 May 31, 2019 at 03:59PM 24.1 74.3 511
659 May 31, 2019 at 04:09PM 24 74.1 511
660 May 31, 2019 at 04:19PM 24.4 74.4 511
661 May 31, 2019 at 04:30PM 24.1 74.2 511
662 May 31, 2019 at 04:40PM 24.2 74.3 511
663 May 31, 2019 at 04:50PM 24.5 74.5 511
664 May 31, 2019 at 05:00PM 23.2 73.7 511
665 May 31, 2019 at 05:10PM 25 74.7 511
666 May 31, 2019 at 05:20PM 24.1 74.3 511
667 May 31, 2019 at 05:30PM 24 73.4 511
668 May 31, 2019 at 05:41PM 23.7 73.1 511
669 May 31, 2019 at 05:51PM 24 73.2 511
670 May 31, 2019 at 06:01PM 24.2 72.2 511
671 May 31, 2019 at 06:11PM 24 72.5 511
672 May 31, 2019 at 06:21PM 24.9 73 511
673 May 31, 2019 at 06:31PM 24.2 72.7 511
674 May 31, 2019 at 06:42PM 24.2 72.5 511
675 May 31, 2019 at 06:52PM 24.2 72.5 511
676 May 31, 2019 at 07:02PM 24.3 72.5 511
677 May 31, 2019 at 07:12PM 24.4 72.3 511
678 May 31, 2019 at 07:22PM 24.4 72.2 511
679 May 31, 2019 at 07:32PM 24.4 72.2 511
680 May 31, 2019 at 07:42PM 24.5 72.1 511
681 May 31, 2019 at 07:53PM 24.5 72.1 511
682 May 31, 2019 at 08:03PM 24.6 72.1 511
683 May 31, 2019 at 08:13PM 24.3 72 511
684 May 31, 2019 at 08:23PM 24.6 72 511
685 May 31, 2019 at 08:33PM 24.5 72.1 511
686 May 31, 2019 at 08:43PM 24.8 72.5 511 placed in salt bag
687 May 31, 2019 at 08:53PM 24.9 72.9 511
688 May 31, 2019 at 09:04PM 24.8 73.2 511
689 May 31, 2019 at 09:14PM 25 73 511
690 May 31, 2019 at 09:24PM 25 73 511
691 May 31, 2019 at 09:34PM 24.9 73.2 511
692 May 31, 2019 at 09:44PM 25 73.1 511
693 May 31, 2019 at 09:54PM 24.9 73.1 511
694 May 31, 2019 at 10:05PM 25 73 511
695 May 31, 2019 at 10:15PM 24.9 72.9 511
696 May 31, 2019 at 10:25PM 25.2 72.7 511
697 May 31, 2019 at 10:35PM 25.3 72.7 511
698 May 31, 2019 at 10:45PM 25.3 72.7 511
699 May 31, 2019 at 10:55PM 25.3 72.9 511
700 May 31, 2019 at 11:05PM 25.4 72.9 511
701 May 31, 2019 at 11:16PM 25.3 72.9 511
702 May 31, 2019 at 11:26PM 25.3 72.8 511
703 May 31, 2019 at 11:36PM 26.4 73.4 511
704 May 31, 2019 at 11:46PM 25.4 72.7 511
705 May 31, 2019 at 11:56PM 25.4 72.8 511
706 June 1, 2019 at 12:06AM 25.4 72.8 511
707 June 1, 2019 at 12:16AM 25.4 72.7 511
708 June 1, 2019 at 12:27AM 25.8 72.7 511
709 June 1, 2019 at 12:37AM 25.5 72.7 511
710 June 1, 2019 at 12:47AM 25.5 72.7 511
711 June 1, 2019 at 12:57AM 24.5 72.5 511
712 June 1, 2019 at 01:07AM 24.2 72.3 511
713 June 1, 2019 at 01:17AM 25.5 72.8 511
714 June 1, 2019 at 01:27AM 25.5 72.8 511
715 June 1, 2019 at 01:38AM 25.5 72.7 511
716 June 1, 2019 at 01:48AM 25.6 72.7 511
717 June 1, 2019 at 01:58AM 26.4 73.3 511
718 June 1, 2019 at 02:08AM 25.6 72.7 511
719 June 1, 2019 at 02:18AM 25.6 72.7 511
720 June 1, 2019 at 02:28AM 25.7 72.7 511
721 June 1, 2019 at 02:38AM 25.7 72.8 511
722 June 1, 2019 at 02:49AM 25.7 72.8 511
723 June 1, 2019 at 02:59AM 26.1 73.3 511
724 June 1, 2019 at 03:09AM 25.7 72.7 511
725 June 1, 2019 at 03:19AM 25.7 72.7 511
726 June 1, 2019 at 03:29AM 25.7 72.7 511
727 June 1, 2019 at 03:39AM 25.8 72.7 511
728 June 1, 2019 at 03:49AM 27 73.9 511
729 June 1, 2019 at 04:00AM 25.3 72.7 511
730 June 1, 2019 at 04:10AM 25.8 72.7 511
731 June 1, 2019 at 04:20AM 26.4 73.2 511
732 June 1, 2019 at 04:30AM 25.2 72.7 511
733 June 1, 2019 at 04:40AM 25.9 72.7 511
734 June 1, 2019 at 04:50AM 25.9 72.7 511
735 June 1, 2019 at 05:00AM 25.9 72.7 511
736 June 1, 2019 at 05:11AM 25.9 72.7 511
737 June 1, 2019 at 05:21AM 25.9 72.7 511
738 June 1, 2019 at 05:31AM 25.9 72.7 511
739 June 1, 2019 at 05:41AM 25.3 72.7 511
740 June 1, 2019 at 05:51AM 26.6 73.2 511
741 June 1, 2019 at 06:01AM 25.9 72.7 511
742 June 1, 2019 at 06:11AM 25.9 72.7 511
743 June 1, 2019 at 06:22AM 25.9 72.7 511
744 June 1, 2019 at 06:32AM 26 73.2 511
745 June 1, 2019 at 06:42AM 26.5 73.2 511
746 June 1, 2019 at 06:52AM 26.3 73.2 511
747 June 1, 2019 at 07:02AM 25.9 72.7 511
748 June 1, 2019 at 07:12AM 25.9 72.8 511
749 June 1, 2019 at 07:23AM 26 73.3 511
750 June 1, 2019 at 07:33AM 26 73.3 511
751 June 1, 2019 at 07:43AM 26 73.2 511
752 June 1, 2019 at 07:53AM 26 73.3 511
753 June 1, 2019 at 08:03AM 26 73.3 511
754 June 1, 2019 at 08:13AM 26 73.2 511
755 June 1, 2019 at 08:23AM 26 73.2 511
756 June 1, 2019 at 08:34AM 26 73.2 511
757 June 1, 2019 at 08:44AM 25.3 70.9 511
758 June 1, 2019 at 08:54AM 27.4 72.2 511
759 June 1, 2019 at 09:04AM 26.3 71.8 511
760 June 1, 2019 at 09:14AM 26.3 71.5 511
761 June 1, 2019 at 09:24AM 26.3 71 511
762 June 1, 2019 at 09:34AM 26.2 70.8 511
763 June 1, 2019 at 09:44AM 26.1 70.6 511
764 June 1, 2019 at 09:55AM 24.8 67.9 511
765 June 1, 2019 at 10:05AM 26.2 67.9 511
766 June 1, 2019 at 10:15AM 26.5 68.1 511
767 June 1, 2019 at 10:25AM 25.6 66.2 511
768 June 1, 2019 at 10:35AM 26.4 67.1 511
769 June 1, 2019 at 10:45AM 26.5 65.9 511
770 June 1, 2019 at 10:55AM 26.5 66.4 511
771 June 1, 2019 at 11:05AM 26.4 65.8 511
772 June 1, 2019 at 11:16AM 26.4 66.1 511
773 June 1, 2019 at 11:26AM 27.7 66.8 511
774 June 1, 2019 at 11:36AM 26.4 66.2 511
775 June 1, 2019 at 11:46AM 26.4 66.2 511
776 June 1, 2019 at 11:56AM 26.4 66.2 511
777 June 1, 2019 at 12:06PM 26.4 66.2 511
778 June 1, 2019 at 12:16PM 26.4 66 511
779 June 1, 2019 at 12:27PM 26.4 65.8 511
780 June 1, 2019 at 12:37PM 26.4 65.6 511
781 June 1, 2019 at 12:47PM 26.5 65.5 511
782 June 1, 2019 at 12:57PM 26.6 64.7 511
783 June 1, 2019 at 01:07PM 26.6 64.4 511
784 June 1, 2019 at 01:17PM 26.7 63.7 511
785 June 1, 2019 at 01:27PM 26.1 55.5 511
786 June 1, 2019 at 01:37PM 24.3 54.1 511
787 June 1, 2019 at 01:48PM 26.2 57 511
788 June 1, 2019 at 01:58PM 25 58.3 511
789 June 1, 2019 at 02:08PM 24.9 58.6 511
790 June 1, 2019 at 02:18PM 24.7 59.9 511
791 June 1, 2019 at 02:28PM 24.7 60.9 511
792 June 1, 2019 at 02:38PM 22.3 58.7 511
793 June 1, 2019 at 02:48PM 24.5 60 511
794 June 1, 2019 at 02:58PM 24.4 59.8 511
795 June 1, 2019 at 03:09PM 24.4 60.1 511
796 June 1, 2019 at 03:19PM 24.4 61.4 511
797 June 1, 2019 at 03:29PM 24.3 59.5 511
798 June 1, 2019 at 03:39PM 24.3 59.8 511
799 June 1, 2019 at 03:49PM 24.2 59.5 511
800 June 1, 2019 at 03:59PM 24.2 59.6 511
801 June 1, 2019 at 04:09PM 24.1 59.6 511
802 June 1, 2019 at 04:19PM 22.9 59 511
803 June 1, 2019 at 04:30PM 25.9 59.9 511
804 June 1, 2019 at 04:40PM 25.1 59.4 511
805 June 1, 2019 at 04:50PM 25.5 60.1 511
806 June 1, 2019 at 05:00PM 25.8 60 511
807 June 1, 2019 at 05:12PM 26 66.4 511 placed in box, peltier turned on
808 June 1, 2019 at 05:22PM 26.3 69.2 511
809 June 1, 2019 at 05:33PM 26.4 69.5 511
810 June 1, 2019 at 05:43PM 27.1 69.9 511
811 June 1, 2019 at 05:53PM 26.2 69.4 511
812 June 1, 2019 at 06:03PM 26.2 69.3 511
813 June 1, 2019 at 06:13PM 26 69.2 511
814 June 1, 2019 at 06:23PM 25.8 68.7 511
815 June 1, 2019 at 06:33PM 25.6 68.7 511
816 June 1, 2019 at 06:43PM 25.5 68.9 511
817 June 1, 2019 at 06:54PM 25.4 68.80001 511
818 June 1, 2019 at 07:04PM 27 64.7 511
819 June 1, 2019 at 07:14PM 25.6 58.9 511
820 June 1, 2019 at 07:24PM 25 59.3 511
821 June 1, 2019 at 07:34PM 22.9 58 511
822 June 1, 2019 at 07:44PM 25 62.5 511
823 June 1, 2019 at 07:54PM 25 63.6 511
824 June 1, 2019 at 08:04PM 25 64.4 511
825 June 1, 2019 at 08:15PM 26.4 64.7 511
826 June 1, 2019 at 08:25PM 26.2 65.1 511
827 June 1, 2019 at 08:35PM 25 65 511
828 June 1, 2019 at 08:45PM 25 65.5 511
829 June 1, 2019 at 08:55PM 24.9 66.1 511
830 June 1, 2019 at 09:05PM 24.8 66.4 511
831 June 1, 2019 at 09:15PM 24.8 66.5 511
832 June 1, 2019 at 09:25PM 24.7 66.6 511
833 June 1, 2019 at 09:36PM 24.6 66.6 511
834 June 1, 2019 at 09:46PM 24.6 66.8 511
835 June 1, 2019 at 09:56PM 24.6 67 511
836 June 1, 2019 at 10:06PM 24.6 67.1 511
837 June 1, 2019 at 10:16PM 24.6 67.1 511
838 June 1, 2019 at 10:26PM 23.1 66.5 511 turned off a/c
839 June 1, 2019 at 10:36PM 24.5 67.5 511
840 June 1, 2019 at 10:46PM 24.5 67.7 511
841 June 1, 2019 at 10:57PM 24.6 67.9 511
842 June 1, 2019 at 11:07PM 24.7 68.1 511
843 June 1, 2019 at 11:17PM 25.3 68.7 511
844 June 1, 2019 at 11:27PM 25.4 68 511
845 June 1, 2019 at 11:37PM 26.5 68.7 511
846 June 1, 2019 at 11:47PM 26.5 69 511
847 June 1, 2019 at 11:57PM 25.1 68.6 511
848 June 2, 2019 at 12:07AM 25 68.6 511
849 June 2, 2019 at 12:18AM 25.1 68.7 511
850 June 2, 2019 at 12:28AM 25.1 68.7 511
851 June 2, 2019 at 12:38AM 25 68.7 511
852 June 2, 2019 at 12:48AM 25 68.7 511
853 June 2, 2019 at 12:58AM 25 68.6 511
854 June 2, 2019 at 01:08AM 25 68.7 511
855 June 2, 2019 at 01:18AM 25.1 68.7 511
856 June 2, 2019 at 01:28AM 25.1 68.7 511
857 June 2, 2019 at 01:39AM 25.1 68.6 511
858 June 2, 2019 at 01:49AM 25.1 68.6 511
859 June 2, 2019 at 01:59AM 25.1 68.6 511
860 June 2, 2019 at 02:09AM 25.1 68.7 511
861 June 2, 2019 at 02:19AM 22.7 67.5 511
862 June 2, 2019 at 02:29AM 25.1 68.5 511
863 June 2, 2019 at 02:39AM 25.2 68.6 511
864 June 2, 2019 at 02:50AM 25.3 68.6 511
865 June 2, 2019 at 03:00AM 25.9 68.6 511
866 June 2, 2019 at 03:10AM 26.2 69.2 511
867 June 2, 2019 at 03:20AM 25.2 68.7 511
868 June 2, 2019 at 03:30AM 25.2 68.7 511
869 June 2, 2019 at 03:40AM 25.1 68.7 511
870 June 2, 2019 at 03:50AM 24.1 68.4 511
871 June 2, 2019 at 04:00AM 25.1 68.7 511
872 June 2, 2019 at 04:11AM 23.1 67.9 511
873 June 2, 2019 at 04:21AM 25.1 68.80001 511
874 June 2, 2019 at 04:31AM 24.1 68.5 511
875 June 2, 2019 at 04:41AM 25.1 68.80001 511
876 June 2, 2019 at 04:51AM 25.1 68.80001 511
877 June 2, 2019 at 05:01AM 25.1 68.7 511
878 June 2, 2019 at 05:11AM 25 68.7 511
879 June 2, 2019 at 05:21AM 25.1 68.7 511
880 June 2, 2019 at 05:32AM 25.3 68.7 511
881 June 2, 2019 at 05:42AM 25.1 68.7 511
882 June 2, 2019 at 05:52AM 25.9 68.6 511
883 June 2, 2019 at 06:02AM 25.1 68.7 511
884 June 2, 2019 at 06:12AM 25.1 68.5 511
885 June 2, 2019 at 06:22AM 25.2 68.6 511
886 June 2, 2019 at 06:32AM 23 67.5 511
887 June 2, 2019 at 06:42AM 25.2 68.5 511
888 June 2, 2019 at 06:53AM 25.2 68.5 511
889 June 2, 2019 at 07:03AM 25.2 68.6 511
890 June 2, 2019 at 07:13AM 25.3 68.5 511
891 June 2, 2019 at 07:23AM 25.3 68.5 511
892 June 2, 2019 at 07:33AM 25.3 68.6 511
893 June 2, 2019 at 07:43AM 27 69.7 511
894 June 2, 2019 at 07:53AM 26.4 69.1 511
895 June 2, 2019 at 08:03AM 25.4 68.6 511
896 June 2, 2019 at 08:14AM 25.4 68.5 511
897 June 2, 2019 at 08:24AM 25.4 68.6 511
898 June 2, 2019 at 08:34AM 26.5 69.2 511
899 June 2, 2019 at 08:44AM 25.4 68.6 511
900 June 2, 2019 at 08:54AM 25.4 68.6 511
901 June 2, 2019 at 09:04AM 25.5 68.6 511
902 June 2, 2019 at 09:14AM 25.5 68.7 511
903 June 2, 2019 at 09:24AM 25.5 68.6 511
904 June 2, 2019 at 09:35AM 25.5 68.7 511
905 June 2, 2019 at 09:45AM 25.6 68.7 511
906 June 2, 2019 at 09:55AM 26.2 69.2 511
907 June 2, 2019 at 10:05AM 25.5 68.7 511
908 June 2, 2019 at 10:15AM 25.6 68.7 511
909 June 2, 2019 at 10:25AM 25.6 68.7 511
910 June 2, 2019 at 10:35AM 26.6 69.2 511
911 June 2, 2019 at 10:45AM 25.6 68.80001 511
912 June 2, 2019 at 10:56AM 25.7 68.80001 511
913 June 2, 2019 at 11:06AM 25.7 68.80001 511
914 June 2, 2019 at 11:16AM 25.7 68.80001 511
915 June 2, 2019 at 11:26AM 24.9 68.80001 511
916 June 2, 2019 at 11:36AM 25.7 68.80001 511
917 June 2, 2019 at 11:46AM 27.4 70 511
918 June 2, 2019 at 11:56AM 24.7 68.7 511
919 June 2, 2019 at 12:06PM 25.7 68.80001 511 battery died
920 June 2, 2019 at 08:32PM 26 68.3 511
921 June 2, 2019 at 08:42PM 25.5 68.3 511
922 June 2, 2019 at 08:52PM 25.1 68.80001 511
923 June 2, 2019 at 09:02PM 25 69.2 511
924 June 2, 2019 at 09:12PM 24.9 69.4 511
925 June 2, 2019 at 09:22PM 24.9 69.5 511
926 June 2, 2019 at 09:33PM 24.8 69.5 511
927 June 2, 2019 at 09:43PM 24.7 69.6 511
928 June 2, 2019 at 09:53PM 24.7 69.5 511
929 June 2, 2019 at 10:03PM 24.6 69.4 511
930 June 2, 2019 at 10:13PM 24.5 69.2 511
931 June 2, 2019 at 10:23PM 24.4 69.1 511
932 June 2, 2019 at 10:33PM 24.2 69 511
933 June 2, 2019 at 10:44PM 24 68.80001 511
934 June 2, 2019 at 10:54PM 23.9 69 511
935 June 2, 2019 at 11:04PM 24.1 69.3 511
936 June 2, 2019 at 11:14PM 23 68.7 511
937 June 2, 2019 at 11:24PM 23.6 69.1 511
938 June 2, 2019 at 11:34PM 22.7 68.7 511
939 June 2, 2019 at 11:44PM 23.8 69.7 511
940 June 2, 2019 at 11:55PM 24.1 69.9 511
941 June 3, 2019 at 12:05AM 24.4 69.9 511
942 June 3, 2019 at 12:15AM 24.5 70 511
943 June 3, 2019 at 12:25AM 24.6 69.9 511
944 June 3, 2019 at 12:35AM 25.3 70.1 511
945 June 3, 2019 at 12:45AM 25 70.2 511
946 June 3, 2019 at 12:55AM 23.4 69.3 511
947 June 3, 2019 at 01:06AM 25 70.1 511
948 June 3, 2019 at 01:16AM 24.1 69.8 511
949 June 3, 2019 at 01:26AM 25.1 70.2 511
950 June 3, 2019 at 01:36AM 25.2 70.2 511
951 June 3, 2019 at 01:46AM 25.2 70.2 511
952 June 3, 2019 at 01:56AM 24.3 69.9 511
953 June 3, 2019 at 02:06AM 25.3 70.2 511
954 June 3, 2019 at 02:17AM 26.3 70.7 511
955 June 3, 2019 at 02:27AM 25.3 70.2 511
956 June 3, 2019 at 02:37AM 25.9 70.2 511
957 June 3, 2019 at 02:47AM 25.3 70.2 511
958 June 3, 2019 at 02:57AM 25.8 70.2 511
959 June 3, 2019 at 03:07AM 25.3 70.1 511
960 June 3, 2019 at 03:17AM 25.3 70.2 511
961 June 3, 2019 at 03:28AM 25.4 70.2 511
962 June 3, 2019 at 03:38AM 25.4 70.2 511
963 June 3, 2019 at 03:48AM 25.4 70.2 511
964 June 3, 2019 at 03:58AM 25.4 70.2 511
965 June 3, 2019 at 04:08AM 25.4 70.2 511
966 June 3, 2019 at 04:18AM 25.4 70.2 511
967 June 3, 2019 at 04:28AM 25.4 70.2 511
968 June 3, 2019 at 04:39AM 25.4 70.2 511
969 June 3, 2019 at 04:49AM 26.2 70.8 511
970 June 3, 2019 at 04:59AM 25.5 70.3 511
971 June 3, 2019 at 05:09AM 25.5 70.2 511
972 June 3, 2019 at 05:19AM 26.4 70.8 511
973 June 3, 2019 at 05:29AM 25.5 70.2 511
974 June 3, 2019 at 05:39AM 24.3 70 511
975 June 3, 2019 at 05:50AM 26 70.8 511
976 June 3, 2019 at 06:00AM 25.4 70.3 511
977 June 3, 2019 at 06:10AM 25.4 70.3 511
978 June 3, 2019 at 06:20AM 24.6 70.2 511
979 June 3, 2019 at 06:30AM 25.4 70.3 511
980 June 3, 2019 at 06:40AM 25.4 70.4 511
981 June 3, 2019 at 06:51AM 25.4 70.4 511
982 June 3, 2019 at 07:01AM 25.5 70.3 511
983 June 3, 2019 at 07:11AM 25.4 70.3 511
984 June 3, 2019 at 07:21AM 26 70.9 511
985 June 3, 2019 at 07:31AM 25.5 70.4 511
986 June 3, 2019 at 07:41AM 23.5 69.6 511
987 June 3, 2019 at 07:51AM 25.3 70.4 511
988 June 3, 2019 at 08:02AM 25.3 70.4 511
989 June 3, 2019 at 08:12AM 25.3 70.4 511
990 June 3, 2019 at 08:32AM 25.3 70.4 511
991 June 3, 2019 at 08:42AM 24 69.9 511
992 June 3, 2019 at 08:52AM 26.1 70.9 511
993 June 3, 2019 at 09:02AM 23.6 69.7 511
994 June 3, 2019 at 09:13AM 25.3 70.4 511
995 June 3, 2019 at 09:23AM 25.2 70.4 511
996 June 3, 2019 at 09:33AM 25.2 70.4 511
997 June 3, 2019 at 09:43AM 25.2 70.4 511
998 June 3, 2019 at 09:53AM 25.2 70.4 511
999 June 3, 2019 at 10:03AM 26.7 70.8 511
1000 June 3, 2019 at 10:13AM 25.2 70.1 511
1001 June 3, 2019 at 10:24AM 25.2 69.9 511 placed humidor inside box
1002 June 3, 2019 at 10:34AM 26.1 70.6 511
1003 June 3, 2019 at 10:44AM 25.1 70.7 511
1004 June 3, 2019 at 10:54AM 23.4 69.6 511
1005 June 3, 2019 at 11:04AM 24.8 70.3 511
1006 June 3, 2019 at 11:14AM 24.8 70.3 511
1007 June 3, 2019 at 11:24AM 24.8 70.3 511
1008 June 3, 2019 at 11:35AM 24.8 70.4 511
1009 June 3, 2019 at 11:45AM 24.7 70.3 511
1010 June 3, 2019 at 11:55AM 24.7 70.3 511
1011 June 3, 2019 at 12:05PM 25.6 70.3 511
1012 June 3, 2019 at 12:15PM 24.8 70.2 511
1013 June 3, 2019 at 12:25PM 24.9 70.3 511
1014 June 3, 2019 at 12:35PM 24.9 70.4 511
1015 June 3, 2019 at 12:46PM 24.9 70.3 511
1016 June 3, 2019 at 12:56PM 24.8 70.2 511
1017 June 3, 2019 at 01:06PM 24.8 70.2 511
1018 June 3, 2019 at 01:16PM 23 69.1 511
1019 June 3, 2019 at 01:26PM 24.1 69.9 511
1020 June 3, 2019 at 01:36PM 24.7 70.1 511
1021 June 3, 2019 at 01:46PM 24.7 70.1 511
1022 June 3, 2019 at 01:57PM 24.7 70.2 511
1023 June 3, 2019 at 02:07PM 24.8 70.3 511
1024 June 3, 2019 at 02:17PM 25 70.7 511
1025 June 3, 2019 at 02:27PM 25.1 70.7 511
1026 June 3, 2019 at 02:37PM 25.2 70.8 511
1027 June 3, 2019 at 02:47PM 24.6 70.6 511
1028 June 3, 2019 at 02:57PM 25.3 70.9 511
1029 June 3, 2019 at 03:08PM 25.8 70.9 511
1030 June 3, 2019 at 03:18PM 25.4 71 511
1031 June 3, 2019 at 03:28PM 25.4 71.1 511
1032 June 3, 2019 at 03:38PM 26.1 71.7 511
1033 June 3, 2019 at 03:48PM 23.7 70.6 511
1034 June 3, 2019 at 03:58PM 25.5 71.30001 511
1035 June 3, 2019 at 04:08PM 25.5 71.30001 511
1036 June 3, 2019 at 04:19PM 25.5 71.4 511
1037 June 3, 2019 at 04:29PM 25.6 71.30001 511
1038 June 3, 2019 at 04:39PM 25.6 71.5 511
1039 June 3, 2019 at 04:49PM 26.1 72 511
1040 June 3, 2019 at 04:59PM 26.5 72 511
1041 June 3, 2019 at 05:09PM 25.7 71.5 511
1042 June 3, 2019 at 05:19PM 25.6 71.6 511 placed inside box, real-life demo (5:27pm)
1043 June 3, 2019 at 05:30PM 25.6 71.4 511
1044 June 3, 2019 at 05:40PM 25.4 71.1 511
1045 June 3, 2019 at 05:50PM 24.9 71.30001 511
1046 June 3, 2019 at 06:00PM 24.4 71.6 511
1047 June 3, 2019 at 06:10PM 24.4 72.2 511
1048 June 3, 2019 at 06:20PM 23.6 72.5 511
1049 June 3, 2019 at 06:30PM 23.3 72.9 511
1050 June 3, 2019 at 06:40PM 23.1 73.2 511
1051 June 3, 2019 at 06:50PM 22.9 73.4 511
1052 June 3, 2019 at 07:01PM 22.9 73.6 511
1053 June 3, 2019 at 07:11PM 22.6 73.6 511
1054 June 3, 2019 at 07:21PM 22.6 73.80001 511
1055 June 3, 2019 at 07:31PM 22.2 73.7 511
1056 June 3, 2019 at 07:42PM 22.2 73.9 511
1057 June 3, 2019 at 08:02PM 26.4 62.3 live demo in living room, 30 min sleep, new battery
1058 June 3, 2019 at 08:31PM 22 74.4
1059 June 3, 2019 at 09:01PM 22.3 76.8
1060 June 3, 2019 at 09:31PM 21.1 76.9
1061 June 3, 2019 at 10:01PM 20.9 77.2
1062 June 3, 2019 at 10:31PM 20.7 77.5
1063 June 3, 2019 at 11:01PM 22 78.4
1064 June 3, 2019 at 11:31PM 20.5 77.8
1065 June 4, 2019 at 12:01AM 20.4 77.8
1066 June 4, 2019 at 12:31AM 19.6 77.4
1067 June 4, 2019 at 01:01AM 20.2 77.8
1068 June 4, 2019 at 01:31AM 20.1 77.9
1069 June 4, 2019 at 02:01AM 20.1 78
1070 June 4, 2019 at 02:31AM 19.4 77.6
1071 June 4, 2019 at 03:01AM 19 77.5
1072 June 4, 2019 at 03:31AM 19.9 78
1073 June 4, 2019 at 04:01AM 19.9 78.1
1074 June 4, 2019 at 04:31AM 19.8 78.1
1075 June 4, 2019 at 05:01AM 19.8 78.2
1076 June 4, 2019 at 05:31AM 19.8 78.3
1077 June 4, 2019 at 06:01AM 19.8 78.2
1078 June 4, 2019 at 06:31AM 19.9 78.4
1079 June 4, 2019 at 07:01AM 20.2 78.1
1080 June 4, 2019 at 07:31AM 20.5 77.9
1081 June 4, 2019 at 08:01AM 20.1 77.4
1082 June 4, 2019 at 08:31AM 21 77.2
1083 June 4, 2019 at 09:01AM 21.2 76.5
1084 June 4, 2019 at 09:32AM 21.3 76.30001
1085 June 4, 2019 at 10:02AM 21.4 75.9
1086 June 4, 2019 at 10:32AM 21.5 76
1087 June 4, 2019 at 11:02AM 21.3 75.3
1088 June 4, 2019 at 11:32AM 21.8 75.3
1089 June 4, 2019 at 12:02PM 21.9 75.2
1090 June 4, 2019 at 12:32PM 22 74.7
1091 June 4, 2019 at 01:02PM 21.4 74
1092 June 4, 2019 at 01:32PM 22 74.1
1093 June 4, 2019 at 02:02PM 22.1 74.2
1094 June 4, 2019 at 02:32PM 22 73.9
1095 June 4, 2019 at 03:02PM 20 72.9
1096 June 4, 2019 at 03:32PM 21.3 73.2
1097 June 4, 2019 at 04:02PM 22.7 74
1098 June 4, 2019 at 04:32PM 23.4 74.2
1099 June 4, 2019 at 05:02PM 20.7 72.6
1100 June 4, 2019 at 05:32PM 22.2 73
1101 June 4, 2019 at 06:02PM 22.3 73.2
1102 June 4, 2019 at 06:32PM 22.4 73.2
1103 June 4, 2019 at 07:02PM 22.4 73.2
1104 June 4, 2019 at 07:32PM 23.6 73.7
1105 June 4, 2019 at 08:02PM 23.2 73.7
1106 June 4, 2019 at 08:32PM 21.6 73.6
1107 June 4, 2019 at 09:02PM 22.3 74.5
1108 June 4, 2019 at 09:32PM 22.3 74.6
1109 June 4, 2019 at 10:02PM 21.7 73.9
1110 June 4, 2019 at 10:32PM 22.5 74.2
1111 June 4, 2019 at 11:02PM 22.7 74.3
1112 June 4, 2019 at 11:32PM 21.8 74
1113 June 5, 2019 at 12:02AM 21.8 75.2
1114 June 5, 2019 at 12:32AM 21.5 75.3
1115 June 5, 2019 at 01:02AM 21.4 75.3
1116 June 5, 2019 at 01:32AM 21.1 75.4
1117 June 5, 2019 at 02:02AM 21 75.8
1118 June 5, 2019 at 02:32AM 20.9 75.8
1119 June 5, 2019 at 03:02AM 20.8 75.8
1120 June 5, 2019 at 03:32AM 20.7 75.9
1121 June 5, 2019 at 04:02AM 19.2 75.1
1122 June 5, 2019 at 04:32AM 20.7 76
1123 June 5, 2019 at 05:02AM 20.9 76.30001
1124 June 5, 2019 at 05:32AM 19.8 75.5
1125 June 5, 2019 at 06:02AM 20.7 75.8
1126 June 5, 2019 at 06:32AM 20.8 75.5
1127 June 5, 2019 at 07:02AM 21.8 76
1128 June 5, 2019 at 07:32AM 20.9 75.3
1129 June 5, 2019 at 08:02AM 19.5 75
1130 June 5, 2019 at 08:32AM 20.8 76
1131 June 5, 2019 at 09:02AM 22 76.2
1132 June 5, 2019 at 09:32AM 22.2 76
1133 June 5, 2019 at 10:02AM 22.1 76.2
1134 June 5, 2019 at 10:32AM 22.3 75.9
1135 June 5, 2019 at 11:02AM 22.4 75.4
1136 June 5, 2019 at 11:32AM 22.3 75.2
1137 June 5, 2019 at 12:02PM 22.8 75.6
1138 June 5, 2019 at 12:32PM 20.9 74.6
1139 June 5, 2019 at 01:02PM 22 75.3
1140 June 5, 2019 at 01:33PM 21.9 75
1141 June 5, 2019 at 02:03PM 21.9 75
1142 June 5, 2019 at 02:33PM 22.9 75.4
1143 June 5, 2019 at 03:03PM 21.3 74.6
1144 June 5, 2019 at 03:33PM 21.5 75.8
1145 June 5, 2019 at 04:03PM 21.1 76.7
1146 June 5, 2019 at 04:33PM 20.9 77.6
1147 June 5, 2019 at 05:03PM 20.7 78.3
1148 June 5, 2019 at 05:33PM 20.7 79
1149 June 5, 2019 at 06:03PM 21.1 78.6
1150 June 5, 2019 at 06:33PM 21.3 77.4
1151 June 5, 2019 at 07:03PM 20.9 75.7
1152 June 5, 2019 at 07:33PM 19.6 79.4
1153 June 5, 2019 at 08:03PM 18.1 78.1
1154 June 5, 2019 at 08:33PM 17.5 77.6
1155 June 5, 2019 at 09:03PM 17.2 77.2
1156 June 5, 2019 at 09:33PM 17.9 76.9
1157 June 5, 2019 at 10:03PM 17.6 76.2
1158 June 5, 2019 at 10:33PM 17.6 75.4
1159 June 5, 2019 at 11:03PM 17.6 75.4
1160 June 5, 2019 at 11:33PM 16.6 74.8
1161 June 6, 2019 at 12:03AM 18.9 76.9
1162 June 6, 2019 at 12:33AM 17.4 76.4
1163 June 6, 2019 at 01:03AM 17.2 76.4
1164 June 6, 2019 at 01:33AM 17.5 76.2
1165 June 6, 2019 at 02:03AM 17.3 76.8
1166 June 6, 2019 at 02:33AM 17.6 77.2
1167 June 6, 2019 at 03:03AM 17.4 77.4
1168 June 6, 2019 at 03:33AM 17.2 77.5
1169 June 6, 2019 at 04:03AM 17.1 77.1
1170 June 6, 2019 at 04:33AM 16.8 76.9
1171 June 6, 2019 at 05:03AM 17.4 77.8
1172 June 6, 2019 at 05:33AM 18.5 78.6
1173 June 6, 2019 at 06:03AM 18.5 76.7
1174 June 6, 2019 at 06:33AM 17.7 78.2
1175 June 6, 2019 at 07:03AM 17.2 77.9
1176 June 6, 2019 at 07:33AM 17.3 77.4
1177 June 6, 2019 at 08:03AM 17.5 78.3
1178 June 6, 2019 at 08:33AM 17.2 77.9
1179 June 6, 2019 at 09:03AM 15.8 77
1180 June 6, 2019 at 09:33AM 16.9 77.3
1181 June 6, 2019 at 10:03AM 17.3 77.7
1182 June 6, 2019 at 10:33AM 17 77.6
1183 June 6, 2019 at 11:03AM 17.4 77.2
1184 June 6, 2019 at 11:33AM 17.6 77.7
1185 June 6, 2019 at 12:03PM 17.2 77.7
1186 June 6, 2019 at 12:33PM 17 77.7
1187 June 6, 2019 at 01:03PM 17 77
1188 June 6, 2019 at 01:33PM 17.5 77.8
1189 June 6, 2019 at 02:03PM 17.3 77.9
1190 June 6, 2019 at 02:33PM 17 77.8
1191 June 6, 2019 at 03:03PM 17.1 77.4
1192 June 6, 2019 at 03:33PM 17.1 77.7
1193 June 6, 2019 at 04:03PM 17.3 78.1
1194 June 6, 2019 at 04:33PM 15.6 77.2
1195 June 6, 2019 at 05:03PM 17.3 77.6
1196 June 6, 2019 at 05:33PM 17.1 77.7
1197 June 6, 2019 at 06:03PM 16.8 77.3
1198 June 6, 2019 at 06:33PM 17.8 78.3
1199 June 6, 2019 at 07:03PM 17.5 78.3
1200 June 6, 2019 at 07:33PM 17.3 77.9
1201 June 6, 2019 at 08:03PM 17.3 77.9
1202 June 6, 2019 at 08:33PM 18 78.1
1203 June 6, 2019 at 09:03PM 17.6 78.4
1204 June 6, 2019 at 09:33PM 17.6 78.4
1205 June 6, 2019 at 10:03PM 16.2 77.6
1206 June 6, 2019 at 10:33PM 17.9 77.9
1207 June 6, 2019 at 11:03PM 17.7 78.2
1208 June 6, 2019 at 11:33PM 17.1 78.1
1209 June 7, 2019 at 12:03AM 17.3 78.4
1210 June 7, 2019 at 12:33AM 17 78.2
1211 June 7, 2019 at 01:04AM 17.5 77.9
1212 June 7, 2019 at 01:34AM 17.7 78.5
1213 June 7, 2019 at 02:04AM 17.2 78.3
1214 June 7, 2019 at 02:34AM 16.6 77.7
1215 June 7, 2019 at 03:04AM 17.6 78.4
1216 June 7, 2019 at 03:34AM 17.2 78.1
1217 June 7, 2019 at 04:04AM 17.4 77.7
1218 June 7, 2019 at 04:34AM 17.5 78.6
1219 June 7, 2019 at 05:04AM 17 78.4
1220 June 7, 2019 at 05:34AM 17.2 77.7
1221 June 7, 2019 at 06:04AM 15.8 77.7
1222 June 7, 2019 at 06:34AM 17.8 78.9
1223 June 7, 2019 at 07:04AM 17.3 78
1224 June 7, 2019 at 07:34AM 17.6 78.80001
1225 June 7, 2019 at 08:04AM 17.2 78.6
1226 June 7, 2019 at 08:34AM 17.6 78.5
1227 June 7, 2019 at 09:04AM 17.6 78.9
1228 June 7, 2019 at 09:34AM 17.3 79
1229 June 7, 2019 at 10:04AM 17.1 79
1230 June 7, 2019 at 10:34AM 17.5 78.5
1231 June 7, 2019 at 11:04AM 17.7 79
1232 June 7, 2019 at 11:34AM 17.4 79
1233 June 7, 2019 at 12:04PM 18.5 79.7
1234 June 7, 2019 at 12:34PM 18.2 79
1235 June 7, 2019 at 01:04PM 18 78.7
1236 June 7, 2019 at 01:34PM 18.6 79.1
1237 June 7, 2019 at 02:04PM 17.9 79
1238 June 7, 2019 at 02:34PM 18.7 79.1
1239 June 7, 2019 at 03:04PM 18.1 79.1
1240 June 7, 2019 at 03:34PM 18.5 78.80001
1241 June 7, 2019 at 04:04PM 18.4 79.1
1242 June 7, 2019 at 04:34PM 17.9 78.9
1243 June 7, 2019 at 05:04PM 19.4 79.6
1244 June 7, 2019 at 05:34PM 17.7 79.1
1245 June 7, 2019 at 06:04PM 18.5 79.2
1246 June 7, 2019 at 06:34PM 17.8 79.1
1247 June 7, 2019 at 07:04PM 17.1 78.80001
1248 June 7, 2019 at 07:34PM 17.3 79
1249 June 7, 2019 at 08:04PM 17.1 79.1
1250 June 7, 2019 at 08:34PM 17.3 79.1
1251 June 7, 2019 at 09:04PM 18.2 79.3
1252 June 7, 2019 at 09:34PM 18.2 79.4
1253 June 7, 2019 at 10:04PM 18.8 78.80001
1254 June 7, 2019 at 10:34PM 18.3 79.5
1255 June 7, 2019 at 11:04PM 18 79.3
1256 June 7, 2019 at 11:34PM 18.4 78.80001
1257 June 8, 2019 at 12:04AM 18.5 79.5
1258 June 8, 2019 at 12:34AM 18.2 79.4
1259 June 8, 2019 at 01:04AM 18 79
1260 June 8, 2019 at 01:34AM 20.5 80.5
1261 June 8, 2019 at 02:04AM 18.6 79.3
1262 June 8, 2019 at 07:20AM 18.7 79.8
1263 June 8, 2019 at 07:50AM 18.7 78.3
1264 June 8, 2019 at 08:20AM 19.6 79.6
1265 June 8, 2019 at 08:50AM 17.9 79.7
1266 June 8, 2019 at 09:20AM 17.9 80.2
1267 June 8, 2019 at 09:50AM 17.7 79.3
1268 June 8, 2019 at 10:20AM 18.7 80.1
1269 June 8, 2019 at 10:50AM 18.1 80.1
1270 June 8, 2019 at 11:20AM 17.3 79.3
1271 June 8, 2019 at 11:50AM 18.7 79.4
1272 June 8, 2019 at 12:20PM 18.8 79.8
1273 June 8, 2019 at 12:50PM 18.3 79.9
1274 June 8, 2019 at 01:20PM 18.5 79.1
1275 June 8, 2019 at 01:50PM 17.8 79.3
1276 June 8, 2019 at 02:20PM 19 80
1277 June 8, 2019 at 02:50PM 18 79.2
1278 June 8, 2019 at 03:20PM 19.5 80
1279 June 8, 2019 at 03:50PM 19.4 80.30001
1280 June 8, 2019 at 04:20PM 18.6 78.9
1281 June 8, 2019 at 04:50PM 18.3 79.5
1282 June 8, 2019 at 05:20PM 18.4 79
1283 June 8, 2019 at 05:50PM 18.8 79.7
1284 June 8, 2019 at 06:20PM 18.4 79.2
1285 June 8, 2019 at 06:50PM 18.7 79
1286 June 8, 2019 at 07:20PM 18.5 79.7
1287 June 8, 2019 at 07:50PM 18 79.7
1288 June 8, 2019 at 08:20PM 18.9 79.3
1289 June 8, 2019 at 08:50PM 18.8 79.5
1290 June 8, 2019 at 09:20PM 18.3 79.9
1291 June 8, 2019 at 09:50PM 18.4 79.1
1292 June 8, 2019 at 10:20PM 18.5 79.7
1293 June 8, 2019 at 10:50PM 18.1 79.8
1294 June 8, 2019 at 11:20PM 18.8 79
1295 June 8, 2019 at 11:50PM 17.4 79.3
1296 June 9, 2019 at 12:20AM 18.3 78.9
1297 June 9, 2019 at 12:50AM 18.6 79.6
1298 June 9, 2019 at 01:20AM 18.5 79.5
1299 June 9, 2019 at 01:50AM 18.1 79.5
1300 June 9, 2019 at 02:20AM 16.9 78.5
1301 June 9, 2019 at 02:50AM 17.8 79.5
1302 June 9, 2019 at 03:20AM 17.9 79.7
1303 June 9, 2019 at 03:50AM 18.7 79.3
1304 June 9, 2019 at 04:20AM 18 79
1305 June 9, 2019 at 04:50AM 17.9 79.6
1306 June 9, 2019 at 05:20AM 18.8 79.3
1307 June 9, 2019 at 05:49AM 18 79.7
1308 June 9, 2019 at 06:19AM 17 78.2
1309 June 9, 2019 at 06:49AM 19.1 80.4
1310 June 9, 2019 at 07:19AM 17.8 79
1311 June 9, 2019 at 07:49AM 18.5 79.5
1312 June 9, 2019 at 08:19AM 16.9 79
1313 June 9, 2019 at 08:49AM 18.2 78.80001
1314 June 9, 2019 at 09:19AM 19.4 79.8
1315 June 9, 2019 at 09:49AM 18.4 79.3
1316 June 9, 2019 at 10:19AM 18.1 79.3
1317 June 9, 2019 at 10:49AM 18.8 78.6 battery died
1318 June 9, 2019 at 01:47PM 19.6 90
1319 June 9, 2019 at 02:16PM 18.9 79.9
1320 June 9, 2019 at 02:46PM 18.7 79.3
1321 June 9, 2019 at 03:16PM 18.8 79.3
1322 June 9, 2019 at 03:46PM 18.3 79.7
1323 June 9, 2019 at 04:16PM 17.3 78.80001
1324 June 9, 2019 at 04:46PM 18.6 78.80001
1325 June 9, 2019 at 05:16PM 18.5 79.6
1326 June 9, 2019 at 05:46PM 18.2 78.7
1327 June 9, 2019 at 06:16PM 18.3 79.7
1328 June 9, 2019 at 06:46PM 17.4 78.6
1329 June 9, 2019 at 07:17PM 18.2 78.80001
1330 June 9, 2019 at 07:47PM 18.8 79
1331 June 9, 2019 at 08:17PM 18.2 79
1332 June 9, 2019 at 08:47PM 18.3 78.3
1333 June 9, 2019 at 09:17PM 18.6 79.4
1334 June 9, 2019 at 09:47PM 18.2 78.80001
1335 June 9, 2019 at 10:17PM 18.8 78.7
1336 June 9, 2019 at 10:47PM 18.9 79.3
1337 June 9, 2019 at 11:17PM 18.4 78.80001
1338 June 9, 2019 at 11:47PM 18.6 78.4
1339 June 10, 2019 at 12:17AM 19.2 78.80001
1340 June 10, 2019 at 12:47AM 18.5 78.9
1341 June 10, 2019 at 01:17AM 18.5 78.3
1342 June 10, 2019 at 01:47AM 18.5 78.4
1343 June 10, 2019 at 02:17AM 18.7 79.3
1344 June 10, 2019 at 02:47AM 18.1 78.4
1345 June 10, 2019 at 03:17AM 18.4 79.1
1346 June 10, 2019 at 03:47AM 17.5 78.3
1347 June 10, 2019 at 04:48AM 19.4 79.3
1348 June 10, 2019 at 05:18AM 17.9 78.3
1349 June 10, 2019 at 05:48AM 18.1 78.1
1350 June 10, 2019 at 06:18AM 18.5 79.1
1351 June 10, 2019 at 06:48AM 17.8 78.2
1352 June 10, 2019 at 07:18AM 19.3 78.7
1353 June 10, 2019 at 07:48AM 18.5 78.7
1354 June 10, 2019 at 08:18AM 17.6 77.8
1355 June 10, 2019 at 08:48AM 18.4 77.7
1356 June 10, 2019 at 09:18AM 18.1 78.5
1357 June 10, 2019 at 09:48AM 18.1 78.3
1358 June 10, 2019 at 10:18AM 18.2 77.9
1359 June 10, 2019 at 10:48AM 18.5 78.80001
1360 June 10, 2019 at 11:18AM 18.3 78.4
1361 June 10, 2019 at 11:48AM 18.2 78.3
1362 June 10, 2019 at 12:18PM 18.5 77.8
1363 June 10, 2019 at 12:48PM 18.1 78.4
1364 June 10, 2019 at 01:18PM 17.8 77.7
1365 June 10, 2019 at 01:48PM 18.7 78.80001
1366 June 10, 2019 at 02:18PM 18.3 78.3
1367 June 10, 2019 at 02:48PM 18 77.3
1368 June 10, 2019 at 03:18PM 18.5 78.6
1369 June 10, 2019 at 03:48PM 18 77.9
1370 June 10, 2019 at 04:18PM 18.4 78.2
1371 June 10, 2019 at 04:48PM 18.4 78.2
1372 June 10, 2019 at 05:18PM 18.3 77.8
1373 June 10, 2019 at 05:48PM 18.3 78
1374 June 10, 2019 at 06:18PM 18.4 78.1
1375 June 10, 2019 at 06:48PM 18.2 77.5
1376 June 10, 2019 at 07:18PM 19 78.3
1377 June 10, 2019 at 07:48PM 18.4 77.9
1378 June 10, 2019 at 08:18PM 18.9 77.9
1379 June 10, 2019 at 08:48PM 19 78.3
1380 June 10, 2019 at 09:18PM 18.4 77.9
1381 June 10, 2019 at 09:48PM 17.6 77
1382 June 10, 2019 at 10:18PM 18.5 78
1383 June 10, 2019 at 10:48PM 17.9 77.6
1384 June 10, 2019 at 11:18PM 17.7 77.4
1385 June 10, 2019 at 11:48PM 18.6 77.6
1386 June 11, 2019 at 12:18AM 17.9 77.6
1387 June 11, 2019 at 12:48AM 18.7 77.6
1388 June 11, 2019 at 01:18AM 18.9 77.4
1389 June 11, 2019 at 01:48AM 18.7 77.8
1390 June 11, 2019 at 02:18AM 19.5 78.1
1391 June 11, 2019 at 02:49AM 18.7 77.1
1392 June 11, 2019 at 03:19AM 18.7 77.8
1393 June 11, 2019 at 03:49AM 18.3 77.6
1394 June 11, 2019 at 04:19AM 18.9 77.4
1395 June 11, 2019 at 04:49AM 17.7 77.1
1396 June 11, 2019 at 05:19AM 17.3 76.7
1397 June 11, 2019 at 05:49AM 18.7 77.4
1398 June 11, 2019 at 06:19AM 18.6 77.7
1399 June 11, 2019 at 06:49AM 18.4 77.1
1400 June 11, 2019 at 07:19AM 18.9 77.8
1401 June 11, 2019 at 07:49AM 18.8 77.6
1402 June 11, 2019 at 08:19AM 18.5 77.2
1403 June 11, 2019 at 08:49AM 18.9 77.3
1404 June 11, 2019 at 09:19AM 18.7 77.6
1405 June 11, 2019 at 09:49AM 18.4 77.2
1406 June 11, 2019 at 10:19AM 18 76.7
1407 June 11, 2019 at 10:49AM 18.9 77.7
1408 June 11, 2019 at 11:19AM 18.1 77.2
1409 June 11, 2019 at 11:49AM 18.5 76.9
1410 June 11, 2019 at 12:19PM 19 77.4
1411 June 11, 2019 at 12:49PM 18.6 77.4
1412 June 11, 2019 at 01:19PM 18.7 77.2
1413 June 11, 2019 at 01:49PM 18.8 76.7
1414 June 11, 2019 at 02:19PM 18.8 77.4
1415 June 11, 2019 at 02:49PM 18.3 77.2
1416 June 11, 2019 at 03:19PM 18.7 77
1417 June 11, 2019 at 03:49PM 19.2 77.6
1418 June 11, 2019 at 04:19PM 17.8 76.9
1419 June 11, 2019 at 04:49PM 18.2 76.8
1420 June 11, 2019 at 05:19PM 18.8 77.6
1421 June 11, 2019 at 05:49PM 18.7 77.3
1422 June 11, 2019 at 06:19PM 18.3 77.1
1423 June 11, 2019 at 06:49PM 18.6 76.7
1424 June 11, 2019 at 07:19PM 18.4 77.2
1425 June 11, 2019 at 07:49PM 18.3 77.1
1426 June 11, 2019 at 08:19PM 19 77.1
1427 June 11, 2019 at 08:49PM 18.4 77.3
1428 June 11, 2019 at 09:19PM 18 77
1429 June 11, 2019 at 09:49PM 18.3 76.7
1430 June 11, 2019 at 10:19PM 18.7 77.3
1431 June 11, 2019 at 10:49PM 18.4 77
1432 June 11, 2019 at 11:19PM 18.4 76.7
1433 June 11, 2019 at 11:49PM 18.9 77.3
1434 June 12, 2019 at 12:19AM 18.3 76.9
1435 June 12, 2019 at 12:49AM 18.4 76.9
1436 June 12, 2019 at 01:19AM 18.9 76.7
1437 June 12, 2019 at 01:49AM 19 77.2
1438 June 12, 2019 at 02:19AM 18.4 77
1439 June 12, 2019 at 02:49AM 18.8 76.5
1440 June 12, 2019 at 03:19AM 18 76.30001
1441 June 12, 2019 at 03:49AM 18.2 77
1442 June 12, 2019 at 04:19AM 18.2 76.8
1443 June 12, 2019 at 04:49AM 18.5 76.5
1444 June 12, 2019 at 05:20AM 18.5 76.9
1445 June 12, 2019 at 05:50AM 18.7 76.30001
1446 June 12, 2019 at 06:20AM 18.5 77
1447 June 12, 2019 at 06:50AM 19.1 77.2
1448 June 12, 2019 at 07:20AM 18.9 77.1
1449 June 12, 2019 at 08:20AM 19.6 77
1450 June 12, 2019 at 08:50AM 18.6 77
1451 June 12, 2019 at 09:20AM 18.3 76.5
1452 June 12, 2019 at 09:50AM 19.4 77.2
1453 June 12, 2019 at 10:20AM 18.8 76.9
1454 June 12, 2019 at 10:50AM 18.4 76.8
1455 June 12, 2019 at 11:20AM 19 76.4
1456 June 12, 2019 at 11:50AM 19 76.6
1457 June 12, 2019 at 12:20PM 18.6 76.9
1458 June 12, 2019 at 12:50PM 18.4 76.2
1459 June 12, 2019 at 01:20PM 18.8 76.8
1460 June 12, 2019 at 01:50PM 18.6 76.8
1461 June 12, 2019 at 02:20PM 18.4 76.5
1462 June 12, 2019 at 02:50PM 18.8 76.30001
1463 June 12, 2019 at 03:20PM 18.7 76.9
1464 June 12, 2019 at 03:50PM 18.4 76.5
1465 June 12, 2019 at 04:20PM 18.9 76.30001
1466 June 12, 2019 at 04:50PM 18.4 76.7
1467 June 12, 2019 at 05:20PM 18.6 76.4
1468 June 12, 2019 at 05:50PM 19.3 76.30001
1469 June 12, 2019 at 06:20PM 19.4 77.1
1470 June 12, 2019 at 06:50PM 19.1 76.9
1471 June 12, 2019 at 07:20PM 18.7 76.7
1472 June 12, 2019 at 07:50PM 18.9 76.4
1473 June 12, 2019 at 08:20PM 18.7 76.7
1474 June 12, 2019 at 08:50PM 18.4 76.5
1475 June 12, 2019 at 09:20PM 17.8 75.4
1476 June 12, 2019 at 09:50PM 18.8 76.6
1477 June 12, 2019 at 10:20PM 18.3 76.5
1478 June 12, 2019 at 10:50PM 19 76
1479 June 12, 2019 at 11:20PM 18.6 76.6
1480 June 12, 2019 at 11:50PM 17.4 75.9
1481 June 13, 2019 at 12:20AM 18.8 76
1482 June 13, 2019 at 12:50AM 18.6 76.6
1483 June 13, 2019 at 01:20AM 18.3 76.4
1484 June 13, 2019 at 01:50AM 18.6 75.8
1485 June 13, 2019 at 02:20AM 18.5 76.6
1486 June 13, 2019 at 03:20AM 18.5 75.7
1487 June 13, 2019 at 03:50AM 18.6 76.5
1488 June 13, 2019 at 04:20AM 18.6 76.2
1489 June 13, 2019 at 04:50AM 19 75.8
1490 June 13, 2019 at 05:20AM 18.6 76.4
1491 June 13, 2019 at 05:50AM 19 76.5
1492 June 13, 2019 at 06:21AM 18.7 75.7
1493 June 13, 2019 at 06:51AM 18.3 76.30001
1494 June 13, 2019 at 07:21AM 18.8 76.30001
1495 June 13, 2019 at 07:51AM 18.1 76.4
1496 June 13, 2019 at 08:21AM 17.8 75.4
1497 June 13, 2019 at 08:51AM 18.4 76.5
1498 June 13, 2019 at 09:21AM 18.3 75.6
1499 June 13, 2019 at 09:51AM 18.9 76.8
1500 June 13, 2019 at 10:21AM 18.4 76.5
1501 June 13, 2019 at 10:51AM 18.2 76
1502 June 13, 2019 at 11:21AM 18.2 76.1
1503 June 13, 2019 at 11:51AM 18.4 76.4
1504 June 13, 2019 at 12:21PM 18.5 75.6
1505 June 13, 2019 at 12:51PM 18.8 76.5
1506 June 13, 2019 at 01:21PM 18 76.30001
1507 June 13, 2019 at 01:51PM 18.2 76
1508 June 13, 2019 at 02:21PM 18.8 76.30001
1509 June 13, 2019 at 02:51PM 18.7 76.4
1510 June 13, 2019 at 03:21PM 18.1 76.2
1511 June 13, 2019 at 03:51PM 18.8 76.4
1512 June 13, 2019 at 04:21PM 17.3 75.9
1513 June 13, 2019 at 04:51PM 18.4 75.7
1514 June 13, 2019 at 05:21PM 18.7 76.4
1515 June 13, 2019 at 05:51PM 18.4 76.30001
1516 June 13, 2019 at 06:21PM 19.1 76
1517 June 13, 2019 at 06:51PM 18.4 76.5
1518 June 13, 2019 at 07:21PM 18.3 76.4
1519 June 13, 2019 at 07:51PM 18.4 75.9
1520 June 13, 2019 at 08:21PM 18.8 75.8
1521 June 13, 2019 at 08:51PM 18.5 76.5
1522 June 13, 2019 at 09:21PM 18.1 76.2
1523 June 13, 2019 at 09:51PM 18.4 75.9
1524 June 13, 2019 at 10:21PM 18.4 76.5
1525 June 13, 2019 at 10:51PM 17.5 75.8
1526 June 13, 2019 at 11:21PM 18.4 75.9
1527 June 13, 2019 at 11:51PM 18.9 76.9
1528 June 14, 2019 at 12:21AM 18.4 76.2
1529 June 14, 2019 at 12:51AM 18.1 75.6
1530 June 14, 2019 at 01:21AM 18.9 75.8
1531 June 14, 2019 at 01:51AM 18.3 76.4
1532 June 14, 2019 at 02:21AM 18.4 75.5
1533 June 14, 2019 at 02:51AM 18.8 76.30001
1534 June 14, 2019 at 03:21AM 17.9 76.1
1535 June 14, 2019 at 03:51AM 17.7 75.5
1536 June 14, 2019 at 04:21AM 18.6 76.2
1537 June 14, 2019 at 04:51AM 18.2 76.1
1538 June 14, 2019 at 05:21AM 18.9 75.8
1539 June 14, 2019 at 05:51AM 17.8 76
1540 June 14, 2019 at 06:21AM 19 75.8
1541 June 14, 2019 at 06:52AM 17.9 75.8
1542 June 14, 2019 at 07:22AM 18.3 75.6
1543 June 14, 2019 at 07:52AM 19.1 76.5
1544 June 14, 2019 at 08:22AM 18.3 76.30001
1545 June 14, 2019 at 08:52AM 18.5 75.5
1546 June 14, 2019 at 09:22AM 18.1 76.30001
1547 June 14, 2019 at 09:52AM 18.1 76.4
1548 June 14, 2019 at 10:22AM 19 75.7
1549 June 14, 2019 at 10:52AM 18.3 76.2
1550 June 14, 2019 at 11:22AM 17.6 76.1
1551 June 14, 2019 at 11:52AM 18.4 75.8
1552 June 14, 2019 at 12:22PM 19.2 75.8
1553 June 14, 2019 at 12:52PM 18.1 76.2
1554 June 14, 2019 at 01:22PM 18.4 76.1
1555 June 14, 2019 at 01:52PM 19 75.7
1556 June 14, 2019 at 02:22PM 19.4 76.8
1557 June 14, 2019 at 02:52PM 18.1 75.6
1558 June 14, 2019 at 03:22PM 18.6 76.2
1559 June 14, 2019 at 03:52PM 18.8 76.30001
1560 June 14, 2019 at 04:22PM 18.1 75.8
1561 June 14, 2019 at 04:52PM 18.9 76.30001
1562 June 14, 2019 at 05:22PM 18.4 76.4
1563 June 14, 2019 at 05:52PM 17.3 75.6
1564 June 14, 2019 at 06:22PM 18.3 76
1565 June 14, 2019 at 06:52PM 18.8 76.1
1566 June 14, 2019 at 07:22PM 18.1 76.2
1567 June 14, 2019 at 07:52PM 18.2 75.5
1568 June 14, 2019 at 08:22PM 18.7 76.30001
1569 June 14, 2019 at 08:52PM 18 76
1570 June 14, 2019 at 09:22PM 18.8 76
1571 June 14, 2019 at 09:52PM 18.7 75.7
1572 June 14, 2019 at 10:22PM 18.8 76.1
1573 June 14, 2019 at 10:52PM 18.4 76
1574 June 14, 2019 at 11:22PM 19.1 75.8
1575 June 14, 2019 at 11:52PM 18.5 76
1576 June 15, 2019 at 12:22AM 18.2 76.1
1577 June 15, 2019 at 12:52AM 18.7 76
1578 June 15, 2019 at 01:22AM 18.7 75.6
1579 June 15, 2019 at 01:52AM 18.6 76.1
1580 June 15, 2019 at 02:22AM 17.9 75.7
1581 June 15, 2019 at 02:52AM 18.5 75.4
1582 June 15, 2019 at 03:22AM 18.8 75.7
1583 June 15, 2019 at 03:52AM 19.1 76.4
1584 June 15, 2019 at 04:22AM 18.1 75.6
1585 June 15, 2019 at 04:52AM 18.2 75.4
1586 June 15, 2019 at 05:22AM 18.5 76.2
1587 June 15, 2019 at 05:52AM 17.5 75.6
1588 June 15, 2019 at 06:22AM 17.9 75.4
1589 June 15, 2019 at 06:53AM 18.3 75.4
1590 June 15, 2019 at 07:22AM 19.6 76.5
1591 June 15, 2019 at 07:53AM 18.3 75.8
1592 June 15, 2019 at 10:54AM 27 52
1593 June 15, 2019 at 11:21AM 27.4 51.4
1594 June 15, 2019 at 11:24AM 26.4 53.7 swapped sensor, new 2200mah battery
1595 June 15, 2019 at 11:53AM 26.3 53.6
1596 June 15, 2019 at 12:23PM 19.4 77.2
1597 June 15, 2019 at 12:53PM 18.8 78.4
1598 June 15, 2019 at 01:23PM 18.4 79.6
1599 June 15, 2019 at 01:54PM 18.1 79.1
1600 June 15, 2019 at 02:23PM 18.6 79.7
1601 June 15, 2019 at 02:54PM 18 79.9
1602 June 15, 2019 at 03:24PM 18.5 79.3
1603 June 15, 2019 at 03:54PM 18.3 79.9
1604 June 15, 2019 at 04:24PM 18 79.3
1605 June 15, 2019 at 04:54PM 18.4 80
1606 June 15, 2019 at 05:24PM 18.3 79.8
1607 June 15, 2019 at 05:54PM 18.2 78.80001
1608 June 15, 2019 at 06:24PM 18.3 80.1
1609 June 15, 2019 at 06:54PM 17.9 79.8
1610 June 15, 2019 at 07:24PM 18.3 79.6
1611 June 15, 2019 at 07:54PM 18.4 80.2
1612 June 15, 2019 at 08:24PM 18 80.1
1613 June 15, 2019 at 08:54PM 18.6 79.6
1614 June 15, 2019 at 09:24PM 18.1 80.30001
1615 June 15, 2019 at 09:54PM 18.3 79
1616 June 15, 2019 at 10:24PM 18.4 80.1
1617 June 15, 2019 at 10:54PM 17.9 79.7
1618 June 15, 2019 at 11:24PM 18.3 79.7
1619 June 15, 2019 at 11:54PM 18.3 80.1
1620 June 16, 2019 at 12:24AM 18.2 80
1621 June 16, 2019 at 12:54AM 18.3 79
1622 June 16, 2019 at 01:24AM 18.3 80.2
1623 June 16, 2019 at 01:54AM 17.9 79.6
1624 June 16, 2019 at 02:24AM 18.3 80
1625 June 16, 2019 at 02:54AM 18.2 80.1
1626 June 16, 2019 at 03:24AM 18.2 79.8
1627 June 16, 2019 at 03:54AM 18.5 79.4
1628 June 16, 2019 at 04:24AM 18.3 80.1
1629 June 16, 2019 at 04:54AM 18 79.2
1630 June 16, 2019 at 05:24AM 18.2 80.1
1631 June 16, 2019 at 05:54AM 17.8 80.1
1632 June 16, 2019 at 06:24AM 18.5 79.3
1633 June 16, 2019 at 06:54AM 18.4 80
1634 June 16, 2019 at 07:24AM 17.9 79.4
1635 June 16, 2019 at 07:54AM 18.2 79.8
1636 June 16, 2019 at 08:24AM 17.9 80.1
1637 June 16, 2019 at 08:54AM 18.4 79.2
1638 June 16, 2019 at 09:24AM 18.5 80
1639 June 16, 2019 at 09:54AM 17.8 79.9
1640 June 16, 2019 at 10:24AM 18.2 79.5
1641 June 16, 2019 at 10:54AM 18.3 80
1642 June 16, 2019 at 11:24AM 18.3 80
1643 June 16, 2019 at 11:54AM 18.3 78.7
1644 June 16, 2019 at 12:24PM 18.2 80.2
1645 June 16, 2019 at 12:54PM 18.1 79.8
1646 June 16, 2019 at 01:24PM 18.6 79.4
1647 June 16, 2019 at 01:54PM 17.9 80.2
1648 June 16, 2019 at 02:24PM 17.8 79.7
1649 June 16, 2019 at 02:54PM 18.4 80
1650 June 16, 2019 at 03:24PM 18.1 80
1651 June 16, 2019 at 03:54PM 18.3 78.9
1652 June 16, 2019 at 04:24PM 18.3 80.1
1653 June 16, 2019 at 04:54PM 17.9 79.2
1654 June 16, 2019 at 05:24PM 18.3 80
1655 June 16, 2019 at 05:54PM 18.2 80
1656 June 16, 2019 at 06:25PM 18.2 79.7
1657 June 16, 2019 at 06:55PM 18.5 79.1
1658 June 16, 2019 at 07:25PM 18.5 79.7
1659 June 16, 2019 at 07:55PM 17.6 79.7
1660 June 16, 2019 at 08:25PM 17.7 79.4
1661 June 16, 2019 at 08:55PM 18.2 79.5
1662 June 16, 2019 at 09:25PM 17.8 79.6
1663 June 16, 2019 at 09:55PM 18.2 78.80001
1664 June 16, 2019 at 10:25PM 18 79.6
1665 June 16, 2019 at 10:55PM 17.9 79
1666 June 16, 2019 at 11:25PM 18.3 79.4
1667 June 16, 2019 at 11:55PM 17.9 79.4
1668 June 17, 2019 at 12:25AM 18.5 79.2
1669 June 17, 2019 at 12:55AM 18.3 79.4
1670 June 17, 2019 at 01:25AM 17.9 78.6
1671 June 17, 2019 at 01:55AM 18 79.5
1672 June 17, 2019 at 02:25AM 17.6 79.5
1673 June 17, 2019 at 02:55AM 18.2 79.1
1674 June 17, 2019 at 03:25AM 18.1 79.4
1675 June 17, 2019 at 03:55AM 18 78.7
1676 June 17, 2019 at 04:25AM 18.3 79.4
1677 June 17, 2019 at 04:55AM 18.2 79.3
1678 June 17, 2019 at 05:25AM 18.5 78.7
1679 June 17, 2019 at 05:55AM 18.2 79.5
1680 June 17, 2019 at 06:25AM 18.2 78.1
1681 June 17, 2019 at 06:55AM 17.9 79.5
1682 June 17, 2019 at 07:25AM 17.7 79.2
1683 June 17, 2019 at 07:55AM 18.2 79.3
1684 June 17, 2019 at 08:25AM 18.2 79.5
1685 June 17, 2019 at 08:55AM 18.3 79
1686 June 17, 2019 at 09:25AM 18.4 78.80001
1687 June 17, 2019 at 09:55AM 18 79.9
1688 June 17, 2019 at 10:25AM 17.8 79.8
1689 June 17, 2019 at 10:55AM 18.3 79
1690 June 17, 2019 at 11:25AM 18.6 79.2
1691 June 17, 2019 at 11:55AM 17.9 79.8
1692 June 17, 2019 at 12:25PM 17.8 79.4
1693 June 17, 2019 at 12:55PM 18.4 79.5
1694 June 17, 2019 at 01:25PM 18.4 79.6
1695 June 17, 2019 at 01:55PM 17.9 79.4
1696 June 17, 2019 at 02:25PM 18.1 78.80001
1697 June 17, 2019 at 02:55PM 18.1 79.6
1698 June 17, 2019 at 03:25PM 18.2 79.4
1699 June 17, 2019 at 03:55PM 18.4 78.6
1700 June 17, 2019 at 04:25PM 18.2 79.7
1701 June 17, 2019 at 04:55PM 18.3 79.3
1702 June 17, 2019 at 05:25PM 18.3 78.5
1703 June 17, 2019 at 05:56PM 18.1 79.7
1704 June 17, 2019 at 06:26PM 18.2 79.6
1705 June 17, 2019 at 06:56PM 18.3 78.9
1706 June 17, 2019 at 07:26PM 18.6 78.9
1707 June 17, 2019 at 07:56PM 18 79.7
1708 June 17, 2019 at 08:26PM 18 79.3
1709 June 17, 2019 at 08:56PM 18.4 78.6
1710 June 17, 2019 at 09:26PM 18.6 79.3
1711 June 17, 2019 at 09:56PM 17.9 79.5
1712 June 17, 2019 at 10:26PM 18.1 78.9
1713 June 17, 2019 at 10:56PM 18.5 79.3
1714 June 17, 2019 at 11:26PM 18.4 79.4
1715 June 17, 2019 at 11:56PM 17.9 78.9
1716 June 18, 2019 at 12:26AM 18.3 79
1717 June 18, 2019 at 12:56AM 18.3 79.4
1718 June 18, 2019 at 01:26AM 18.3 79.2
1719 June 18, 2019 at 01:56AM 18.2 78.4
1720 June 18, 2019 at 02:26AM 18.1 79.4
1721 June 18, 2019 at 02:56AM 18.1 79.3
1722 June 18, 2019 at 03:26AM 18.3 78.80001
1723 June 18, 2019 at 03:56AM 18.6 78.6
1724 June 18, 2019 at 04:26AM 17.8 79.4
1725 June 18, 2019 at 04:56AM 17.9 79.2
1726 June 18, 2019 at 05:26AM 18.4 78.5
1727 June 18, 2019 at 05:56AM 18.4 79.2
1728 June 18, 2019 at 06:26AM 18.4 79.1
1729 June 18, 2019 at 06:56AM 18.1 78.2
1730 June 18, 2019 at 07:26AM 18.2 79.3
1731 June 18, 2019 at 07:56AM 18.2 79.2
1732 June 18, 2019 at 08:26AM 18.3 78.80001
1733 June 18, 2019 at 08:56AM 18.5 78.3
1734 June 18, 2019 at 09:26AM 18 79.4
1735 June 18, 2019 at 09:56AM 18.1 79.2
1736 June 18, 2019 at 10:26AM 18.4 78.5
1737 June 18, 2019 at 10:56AM 18.6 78.4
1738 June 18, 2019 at 11:26AM 18 79.5
1739 June 18, 2019 at 11:56AM 17.7 79.3
1740 June 18, 2019 at 12:26PM 18.2 78.4
1741 June 18, 2019 at 12:56PM 18.2 79.2
1742 June 18, 2019 at 01:26PM 18 78.6
1743 June 18, 2019 at 01:56PM 18.6 79
1744 June 18, 2019 at 02:26PM 17.8 79.1
1745 June 18, 2019 at 02:56PM 18.1 78.6
1746 June 18, 2019 at 03:26PM 18.5 79
1747 June 18, 2019 at 03:56PM 18.5 79.1
1748 June 18, 2019 at 04:26PM 17.9 78.80001
1749 June 18, 2019 at 04:56PM 18.2 78.4
1750 June 18, 2019 at 05:26PM 18.4 79.1
1751 June 18, 2019 at 05:56PM 18.4 79.1
1752 June 18, 2019 at 06:26PM 18 78.3
1753 June 18, 2019 at 06:56PM 18.3 79.2
1754 June 18, 2019 at 07:26PM 18.3 79.2
1755 June 18, 2019 at 07:56PM 18.3 78.9
1756 June 18, 2019 at 08:26PM 18.3 78.2
1757 June 18, 2019 at 08:56PM 18.2 79.2
1758 June 18, 2019 at 09:27PM 18.2 79.1
1759 June 18, 2019 at 09:57PM 18.3 78.7
1760 June 18, 2019 at 10:27PM 18.5 78.1
1761 June 18, 2019 at 10:57PM 18.1 79.2
1762 June 18, 2019 at 11:27PM 18.1 79
1763 June 18, 2019 at 11:57PM 18.4 78.3
1764 June 19, 2019 at 12:27AM 18.6 78.4